GFSWCAN_sfc_30mbdewp_114.txt.gz
Dewpoint
40 41 40 42 42 40 40 39 37 36 37 36 37 36 37 39 41 41 40 40 37 33 29 29 29 28 28 27 28 28 24 29 24 24 22 22 21 21 21 22 24 25 25 24 26 21 21 33 30 28 32 36 36 34
38 38 39 40 41 41 39 39 38 37 37 37 37 36 37 38 40 40 38 42 42 35 34 38 36 35 34 32 29 27 25 25 23 26 26 25 22 24 22 22 32 25 27 25 28 27 31 33 33 35 34 31 30 30
38 38 37 38 39 40 39 39 38 37 37 36 37 36 35 36 38 39 38 41 38 33 33 33 30 32 34 34 33 28 27 27 27 34 32 28 24 24 24 24 24 29 28 29 28 28 29 31 33 34 35 32 28 28
36 36 36 37 38 39 39 38 38 37 36 35 37 36 34 35 37 39 38 40 38 35 30 25 30 30 30 31 32 32 30 32 32 31 30 27 24 23 22 22 27 29 29 29 29 28 30 29 31 32 33 31 29 27
35 35 36 37 38 38 38 39 38 37 35 35 36 36 35 35 36 37 39 41 40 35 30 29 30 28 29 29 29 30 32 31 29 28 28 26 24 27 26 26 29 29 27 26 24 27 29 28 30 31 29 30 26 23
30 30 33 35 37 38 38 39 38 36 36 35 35 35 34 34 37 36 35 40 41 40 33 26 31 29 28 30 29 29 31 31 32 28 27 27 26 27 27 25 28 28 28 30 28 31 29 30 30 31 29 29 28 25
31 31 31 33 34 36 37 39 38 37 36 34 35 34 34 34 36 35 33 39 42 41 33 29 24 28 29 30 33 33 33 33 30 29 27 25 25 31 29 24 28 27 28 30 32 31 29 29 27 30 31 31 28 26
30 30 31 32 33 35 36 37 37 38 35 34 34 34 34 34 36 35 36 42 43 37 36 28 25 29 30 29 28 30 29 32 31 27 26 26 27 32 28 27 26 26 27 28 30 29 29 29 29 29 30 30 26 20
30 30 31 31 31 33 35 36 37 36 37 35 34 34 33 33 32 32 40 42 41 36 30 29 24 22 32 31 34 33 31 27 27 28 25 27 27 27 29 25 24 23 23 23 28 26 26 25 26 26 26 25 24 19
31 30 30 31 31 32 33 36 37 36 34 33 32 29 29 34 39 39 38 33 32 32 34 29 26 25 30 31 31 30 31 27 26 26 25 29 25 25 24 23 22 21 20 21 26 25 19 21 22 21 20 18 16 17
31 31 30 30 30 30 33 36 36 34 33 31 30 30 35 41 37 35 29 28 30 27 29 27 26 25 30 28 29 33 31 28 21 22 24 23 23 24 23 22 20 19 18 18 19 18 17 17 17 17 15 15 15 15
32 31 30 30 30 31 34 36 36 32 30 34 35 38 38 35 32 28 27 26 25 20 27 27 27 26 32 35 31 32 28 28 21 29 26 22 22 21 19 18 17 17 16 16 16 16 16 16 16 15 14 14 14 14
32 32 31 30 30 31 34 36 35 32 37 37 33 30 28 30 25 24 22 22 22 25 31 30 29 29 34 32 30 29 26 24 31 28 24 20 21 18 17 15 15 15 15 15 14 14 13 13 14 14 14 15 15 14
33 32 31 30 31 31 35 38 35 34 35 29 27 23 26 25 25 23 21 23 28 32 33 30 29 29 32 29 28 24 28 30 25 24 19 20 20 17 16 16 15 14 15 14 14 13 13 13 14 14 14 15 14 13
33 31 31 30 31 33 36 38 35 35 31 27 29 23 26 30 31 31 33 33 35 34 32 31 30 29 29 28 28 28 25 22 23 20 20 20 19 18 17 15 14 14 15 15 14 13 14 14 13 13 14 14 13 13
30 29 28 30 32 34 39 37 35 34 32 29 27 25 27 28 28 29 31 30 34 35 33 31 29 27 26 27 26 25 23 22 20 20 20 19 18 17 16 16 16 16 15 15 14 14 13 14 13 12 13 12 13 13
30 22 28 31 35 38 37 33 32 30 27 26 25 26 27 30 30 29 31 31 34 34 30 27 25 23 27 22 22 22 22 21 21 22 21 18 17 16 15 15 16 16 15 15 15 15 14 14 18 17 14 16 16 13
24 30 33 36 37 36 33 33 29 26 22 23 22 25 26 29 29 29 30 32 33 32 29 28 25 23 21 22 23 21 22 22 20 20 19 18 17 16 16 16 16 16 15 15 14 14 13 15 16 12 14 12 14 15
33 35 37 36 33 31 29 29 29 23 23 22 24 25 26 26 27 28 31 31 30 28 26 25 26 23 23 23 22 21 21 19 18 18 19 19 18 17 17 17 16 16 15 15 18 19 14 15 14 13 12 12 12 9
35 36 36 34 34 31 27 27 28 21 21 23 25 24 26 26 27 29 29 27 26 27 26 24 24 24 24 25 23 22 23 20 18 16 16 16 16 16 15 17 16 16 17 15 14 15 14 14 13 14 11 11 16 15
35 37 36 35 34 34 30 26 22 20 21 23 22 21 23 25 27 27 25 23 26 25 22 23 23 26 26 25 24 22 21 18 17 15 15 16 17 17 19 17 16 18 17 18 21 12 15 14 13 14 18 16 14 14
34 36 33 34 32 29 28 25 21 22 22 21 23 24 23 23 24 24 21 24 23 21 22 21 22 23 21 21 21 22 23 21 19 18 17 18 18 17 17 17 17 17 18 17 16 18 16 14 14 14 16 12 14 13
36 35 33 29 26 24 23 26 23 21 19 22 21 20 20 21 21 18 22 21 20 21 22 20 21 23 23 23 21 21 21 18 17 17 17 19 19 20 19 18 19 17 16 13 12 15 16 9 11 13 11 11 11 11
27 29 28 26 23 21 26 24 20 19 19 19 20 17 19 20 17 18 19 19 19 24 22 24 20 19 18 17 16 18 18 17 17 18 18 15 15 16 16 15 16 15 14 12 11 12 11 16 8 9 10 9 10 9
24 21 26 22 24 21 19 19 19 19 18 18 16 16 17 17 18 19 18 19 19 19 20 19 18 17 16 17 17 18 17 16 15 15 15 13 15 12 12 12 11 12 12 13 12 12 13 11 10 9 9 8 11 6
20 20 22 21 22 21 20 19 19 18 17 17 17 16 17 18 17 16 15 20 19 20 20 20 19 17 17 16 16 15 15 15 15 13 13 13 13 14 13 11 11 13 11 13 14 11 11 9 9 8 7 8 6 5
19 19 17 17 19 20 21 21 20 19 18 17 18 17 17 14 13 16 20 20 20 21 22 21 19 18 16 16 15 16 15 15 15 14 14 12 12 13 16 14 11 15 13 12 12 11 11 11 8 7 7 8 10 7
17 19 17 19 18 18 19 18 19 18 19 18 17 15 14 14 16 17 21 22 23 21 21 21 20 17 17 17 17 17 18 16 15 14 13 12 13 14 15 15 13 11 13 12 12 11 10 9 8 7 6 7 9 7
18 17 13 11 15 16 15 17 17 15 14 17 18 15 14 15 18 21 26 24 22 22 21 19 20 21 20 19 19 18 17 15 12 10 9 10 10 11 12 10 10 11 12 9 10 10 10 12 11 12 8 8 9 7
16 18 14 12 12 14 15 15 16 15 14 16 13 10 12 13 15 18 25 23 22 22 21 21 21 19 18 18 18 18 18 17 14 11 10 12 12 14 12 11 11 10 11 12 10 7 7 8 8 7 6 6 5 6
16 18 16 15 14 15 14 15 15 16 16 15 18 18 13 12 17 17 21 24 24 23 22 19 19 19 18 18 16 16 16 17 16 16 18 16 14 13 12 12 12 10 10 9 8 8 9 6 6 6 5 4 5 4
16 15 14 14 13 13 15 18 17 17 16 17 14 14 14 16 12 15 18 21 23 20 19 18 18 18 18 18 18 16 14 15 13 13 12 13 13 13 11 11 11 10 9 8 7 7 4 4 4 4 4 3 3 3
14 14 14 14 13 14 14 16 13 13 14 15 15 17 18 17 11 13 15 18 19 22 19 21 22 21 19 17 16 15 14 13 12 12 12 12 11 10 9 9 9 8 7 6 6 5 3 3 3 2 2 2 2 1

GFSWCAN_sfc_30mbdewp_117.txt.gz
Dewpoint
41 43 43 43 40 41 40 39 39 39 39 38 38 37 38 40 41 41 40 40 35 32 32 33 34 34 32 30 28 29 26 27 25 23 25 23 22 22 23 30 28 26 23 23 24 20 18 32 30 25 31 35 35 35
41 42 43 43 42 39 40 39 39 38 38 38 38 37 37 39 40 40 37 42 41 35 33 37 36 35 36 33 33 31 28 26 26 26 27 27 23 25 24 24 29 26 27 27 26 25 31 32 31 33 35 31 29 29
39 39 39 41 41 41 40 39 39 38 38 38 38 37 37 37 39 39 38 41 38 34 32 33 32 34 36 36 35 31 29 29 32 34 30 30 26 24 24 22 25 29 30 28 28 29 30 30 31 33 33 33 30 28
39 39 39 39 40 41 41 39 38 38 38 38 37 37 36 36 37 39 38 40 37 35 28 29 34 31 34 36 36 35 34 32 32 32 29 28 26 25 23 25 28 29 28 28 27 28 29 29 30 30 31 31 28 28
38 38 38 39 39 39 40 39 38 38 38 36 36 37 35 35 35 38 38 40 39 34 29 29 32 32 31 31 31 34 33 31 29 27 26 26 27 27 27 30 28 28 26 24 23 27 28 27 29 30 28 29 27 25
36 36 36 37 38 39 39 38 38 38 36 36 36 37 35 35 36 36 31 40 41 40 32 26 31 30 31 31 30 29 33 32 32 30 27 28 27 26 24 25 28 28 28 29 27 31 29 30 30 31 29 29 28 26
34 33 34 34 37 37 38 39 38 37 37 37 36 36 35 35 36 34 32 38 42 40 33 26 28 30 31 32 34 34 34 33 32 29 28 26 25 28 28 25 27 28 28 28 32 31 27 28 27 30 31 32 29 26
32 32 33 35 34 37 37 38 39 38 37 36 36 36 34 34 35 32 34 40 42 37 35 26 26 29 32 31 29 32 29 31 31 28 28 26 28 29 27 28 26 26 27 29 28 28 28 29 28 27 28 30 26 25
32 32 33 33 35 36 37 38 38 37 36 35 35 35 34 33 30 31 37 40 41 36 29 29 23 24 31 32 34 31 31 26 29 28 26 26 25 24 27 25 23 22 22 23 28 27 26 25 24 24 24 24 23 21
32 32 32 32 34 34 35 36 37 37 36 35 33 30 27 31 38 38 37 34 33 33 33 28 28 25 31 32 32 30 33 29 26 27 29 26 22 26 24 22 21 20 20 21 27 18 19 21 21 17 16 16 16 16
32 31 31 32 33 33 34 36 37 37 35 32 30 28 32 37 34 32 27 27 29 27 30 30 28 27 32 28 27 30 29 30 24 24 26 27 21 23 23 20 20 18 18 18 18 17 17 17 18 16 15 15 15 15
32 31 30 30 31 31 32 36 37 35 32 32 32 37 36 32 29 25 25 28 27 23 28 27 27 28 32 34 30 31 26 26 21 29 27 20 21 22 19 17 17 17 16 15 15 15 15 16 15 14 13 13 14 15
31 32 30 30 31 31 33 36 36 35 36 36 33 30 28 29 21 20 20 23 23 25 30 29 27 31 32 32 30 27 23 22 29 26 21 20 22 18 16 16 16 16 15 15 14 13 13 13 14 14 13 13 12 12
32 33 32 31 31 32 34 36 36 36 34 28 26 21 23 24 23 24 23 23 27 32 31 29 29 28 31 28 26 22 23 29 23 22 18 20 20 18 17 16 16 15 14 14 13 12 13 13 14 14 13 13 12 11
32 33 32 31 32 32 34 36 36 35 31 26 27 20 25 30 30 31 33 34 35 34 30 28 30 30 29 25 25 25 24 21 22 19 19 19 18 17 16 15 14 14 15 14 13 14 14 13 12 12 13 13 13 12
33 33 31 32 31 31 34 38 36 33 29 28 27 23 27 28 27 30 32 32 35 32 32 30 28 25 25 24 24 22 23 21 19 19 20 19 18 17 16 17 17 15 14 14 14 13 13 12 11 11 11 10 10 10
33 27 30 32 33 35 38 34 32 28 27 26 25 26 27 28 29 29 31 32 34 32 28 25 24 20 27 23 23 23 21 19 20 21 20 18 16 15 15 16 16 17 16 16 15 14 13 13 13 15 13 12 11 11
27 29 32 32 35 34 33 34 29 25 23 24 22 26 28 28 29 29 31 33 33 32 30 28 27 24 21 20 22 21 21 21 20 19 18 17 15 14 15 15 16 15 15 14 14 13 13 14 13 11 11 12 12 14
29 30 32 35 35 33 29 29 30 24 24 24 26 27 27 27 27 29 31 32 31 30 28 26 25 23 23 24 22 21 20 18 17 18 18 17 17 17 16 17 16 14 13 13 14 16 15 14 14 14 14 17 13 13
31 33 36 36 34 30 27 27 30 22 20 22 25 24 26 27 28 29 30 30 28 28 26 25 24 26 25 24 23 22 20 19 18 16 15 16 17 16 15 15 16 14 15 17 16 14 14 15 15 12 12 15 15 13
34 36 36 34 34 33 30 28 27 23 22 22 26 23 24 25 25 27 27 26 29 27 23 24 25 26 25 25 24 22 19 18 16 14 15 15 16 16 15 20 16 17 16 15 15 11 15 14 15 18 15 14 12 7
35 37 34 34 31 31 30 30 25 23 23 22 23 23 23 23 24 26 25 26 25 23 23 24 24 23 22 21 20 20 19 20 19 17 16 17 19 19 17 15 16 19 19 18 20 18 15 14 15 15 11 11 12 10
36 35 32 31 28 27 25 26 24 21 20 22 25 23 22 24 24 21 22 25 22 22 23 24 23 22 23 23 22 21 20 19 18 18 18 19 18 19 17 18 20 17 14 14 17 16 11 10 11 11 8 10 10 4
36 32 29 28 28 23 28 26 28 26 24 23 22 21 22 22 19 18 21 20 21 25 22 23 23 22 21 20 19 19 19 19 19 18 22 21 20 19 18 17 16 17 17 13 14 14 14 10 7 8 9 8 8 9
25 24 26 24 27 24 23 22 21 20 19 22 19 17 20 18 17 19 19 20 22 22 23 22 20 19 18 18 19 19 20 19 20 19 17 17 17 16 15 14 14 13 14 12 12 12 12 11 9 11 8 10 12 6
22 23 22 23 24 23 21 19 20 20 19 18 17 19 18 18 18 18 19 20 20 21 22 20 19 18 18 18 19 18 18 18 18 16 17 17 15 13 12 12 11 10 12 16 15 13 9 8 9 7 6 7 5 4
20 20 18 18 20 24 22 22 21 20 18 18 18 18 18 16 16 18 22 21 20 21 21 21 19 18 18 18 18 18 18 19 17 16 16 16 17 17 16 12 13 14 14 12 11 11 13 8 6 6 6 11 9 4
18 20 16 19 19 20 20 19 19 18 19 20 19 17 15 15 16 20 24 23 22 22 22 23 21 20 19 18 19 16 16 15 14 14 14 14 15 14 12 12 14 12 11 11 10 10 10 10 8 6 6 8 7 5
19 18 13 14 16 16 16 18 18 15 16 18 19 16 15 17 18 17 23 23 22 22 22 21 21 20 19 19 18 16 15 14 12 10 9 9 10 12 9 8 9 8 9 10 11 10 10 9 9 9 8 9 6 5
17 19 14 12 13 15 15 17 17 16 15 17 13 12 13 14 19 20 23 24 22 24 25 21 20 18 18 17 16 16 16 15 12 9 9 9 9 13 11 10 12 12 9 8 5 6 9 7 6 5 4 3 4 5
17 20 17 16 15 15 15 15 15 17 16 18 16 14 12 15 18 21 18 22 24 22 21 20 19 18 17 17 15 15 16 16 16 16 16 15 14 13 13 12 11 11 13 10 6 5 6 7 6 8 7 5 5 5
17 17 15 15 13 14 15 18 18 18 15 17 15 13 15 13 13 15 17 17 22 20 19 19 19 19 19 19 17 16 16 14 15 14 14 14 14 14 13 13 12 11 9 8 7 7 5 4 5 4 4 3 2 2
15 15 15 14 13 15 15 17 17 14 17 17 17 18 16 13 9 12 14 13 15 18 20 20 21 19 18 17 16 15 14 13 13 14 14 14 12 11 10 10 10 10 8 7 6 5 4 3 2 2 1 1 1 1

GFSWCAN_sfc_30mbdewp_120.txt.gz
Dewpoint
43 43 42 41 40 40 40 40 40 40 39 38 38 38 39 41 42 40 40 39 32 30 30 33 35 32 32 30 27 29 24 25 24 23 24 23 22 22 23 28 27 25 24 23 22 19 17 30 28 24 29 31 31 31
41 41 42 43 41 40 40 40 40 40 39 39 38 38 39 41 41 39 38 42 39 32 30 36 35 34 33 34 32 31 28 26 29 25 25 26 24 25 23 21 31 25 29 25 24 24 30 31 30 32 33 31 30 28
41 41 43 43 42 39 40 40 40 40 40 39 39 38 38 40 40 39 39 39 36 32 30 31 30 34 37 35 34 29 29 31 32 33 29 29 26 24 22 20 25 29 29 27 27 28 28 29 30 31 32 31 30 32
41 41 41 40 41 39 39 39 40 40 39 39 39 38 38 38 39 39 37 40 36 32 26 26 33 27 33 36 35 34 33 33 32 32 28 27 26 26 23 24 28 30 27 26 25 27 28 28 28 28 28 29 26 26
39 40 40 42 42 41 40 39 39 40 39 38 38 37 36 36 37 37 38 39 38 33 27 27 31 32 33 34 35 35 34 31 28 25 26 26 27 26 26 30 26 27 25 23 22 27 28 26 28 29 28 27 27 26
39 38 39 39 41 41 40 40 39 39 38 37 37 37 35 36 37 35 29 38 40 40 30 24 30 28 31 30 30 33 34 32 31 29 27 27 29 26 23 23 28 29 29 31 28 30 29 29 30 31 29 29 27 26
38 37 38 38 39 40 40 39 37 38 37 38 38 37 36 36 36 32 29 38 41 40 31 24 26 31 32 33 33 33 35 33 32 30 28 26 24 27 27 25 28 29 28 29 31 29 26 28 26 29 29 31 28 27
35 35 36 37 38 40 40 39 38 38 38 37 37 36 36 36 34 27 34 40 42 37 35 24 25 29 32 30 28 32 31 30 31 29 28 26 27 27 26 28 28 28 29 28 27 28 28 27 26 26 28 28 24 22
34 35 36 35 36 38 39 39 39 38 37 36 36 36 33 31 28 28 35 39 40 36 28 27 22 23 33 32 32 30 30 24 28 27 26 27 25 21 25 25 23 24 22 25 29 27 26 24 23 22 22 21 19 19
33 34 35 34 34 36 37 39 38 37 37 36 31 27 25 29 34 38 36 34 34 33 32 26 29 24 30 31 29 28 31 28 25 27 29 25 21 24 24 21 21 20 19 28 21 19 20 21 17 16 16 16 15 15
32 32 33 33 33 35 37 38 38 37 35 30 28 27 28 35 34 30 25 26 29 26 28 28 28 24 32 28 27 29 26 29 24 24 25 25 20 22 23 20 19 18 18 17 18 18 18 20 16 15 14 14 14 14
31 31 32 33 34 35 36 37 37 35 32 30 30 36 35 31 26 22 22 25 26 21 27 27 28 28 31 33 28 30 25 25 21 31 28 20 19 20 18 17 17 16 15 14 14 15 16 15 15 14 13 13 14 15
32 31 30 32 32 33 36 38 36 37 35 34 30 29 28 27 20 18 17 22 24 25 27 29 28 29 33 31 29 27 22 21 27 25 21 19 21 17 17 16 16 15 14 13 12 13 13 13 13 12 11 10 11 11
33 32 31 31 32 33 36 37 37 35 30 25 24 18 22 21 22 19 21 22 25 27 28 28 29 28 30 27 24 21 21 25 21 20 18 18 18 17 16 16 14 13 12 12 12 12 12 12 12 12 12 11 12 12
33 33 31 30 31 33 35 36 37 35 29 24 25 18 21 27 29 29 30 32 33 30 28 29 29 28 27 24 24 21 23 20 22 20 17 18 17 16 16 15 13 12 11 11 12 12 10 11 11 12 12 11 9 8
33 33 31 32 32 33 35 37 35 32 27 26 25 22 24 25 26 30 31 31 33 30 30 28 27 24 23 22 22 20 20 19 19 19 18 18 16 15 14 14 14 13 12 13 13 13 12 10 9 9 9 9 8 7
33 30 32 33 33 36 37 33 31 26 23 25 23 26 25 26 26 29 31 31 34 30 26 24 23 20 24 22 22 24 20 19 18 18 18 16 15 15 15 14 13 13 13 12 11 11 11 11 11 12 11 10 10 10
27 32 33 32 35 35 32 32 27 24 21 22 22 24 27 28 27 29 30 32 33 32 29 27 27 26 21 18 18 20 20 19 18 17 16 15 15 14 14 14 14 14 14 13 13 13 13 14 14 13 11 13 14 13
31 33 33 35 34 33 29 29 29 22 22 24 25 27 28 27 27 28 29 31 32 31 28 26 24 22 22 23 21 19 18 17 16 15 14 13 13 13 14 14 14 13 13 12 13 13 14 15 14 15 15 15 14 15
33 35 35 34 36 32 27 26 29 24 20 20 24 25 25 25 26 27 28 30 31 31 27 25 23 24 23 23 20 20 18 17 16 14 13 14 14 14 15 15 14 12 12 12 14 15 14 14 12 13 16 15 12 12
32 35 35 35 34 33 29 27 26 25 24 23 25 25 23 24 23 24 26 28 29 27 24 23 24 24 21 22 21 19 19 17 15 13 13 14 15 15 14 14 13 13 14 16 15 13 18 16 14 15 13 11 7 6
33 34 33 34 29 30 29 31 26 23 23 24 25 23 22 22 25 26 26 25 25 23 22 23 23 22 22 21 20 19 18 17 15 15 15 15 14 13 14 16 17 14 16 15 16 14 14 15 16 13 12 9 6 6
34 34 31 29 26 27 25 30 24 23 20 21 24 22 23 23 24 23 21 23 22 20 22 23 22 21 21 19 19 18 18 17 16 15 15 15 15 16 17 17 16 16 18 18 17 13 13 15 14 11 10 11 6 1
35 30 25 25 25 23 27 24 27 24 24 23 22 20 22 22 20 19 18 20 19 22 23 22 22 21 21 21 19 19 19 18 17 17 16 18 18 18 16 16 19 17 16 17 16 12 9 10 10 9 8 11 10 10
25 24 26 23 27 23 22 23 22 20 17 19 21 18 21 18 16 16 17 19 21 22 22 23 22 21 20 19 19 19 20 18 17 16 19 20 19 18 17 16 17 16 15 15 12 11 10 6 8 9 6 7 7 6
22 23 22 23 23 22 20 19 20 19 20 19 17 18 17 16 17 16 18 19 21 21 22 21 21 20 20 19 19 19 19 20 19 18 19 19 19 17 15 13 12 13 14 12 11 11 11 9 8 10 8 9 8 7
20 20 23 23 25 27 24 23 21 19 17 17 17 16 16 15 15 17 21 20 20 21 23 22 21 19 19 19 19 19 20 20 19 18 18 18 17 16 15 12 11 12 14 14 12 11 10 8 8 7 5 5 5 3
21 23 18 21 22 22 21 21 20 19 17 18 17 16 15 14 14 16 21 22 21 22 22 21 20 20 20 19 17 17 16 16 15 15 14 13 12 12 13 13 13 13 11 10 10 10 11 7 6 5 5 8 9 3
20 21 18 17 18 18 16 17 17 15 16 17 16 14 13 15 16 16 17 20 22 23 22 20 19 19 17 16 15 16 15 14 13 12 12 11 11 11 10 10 10 10 11 10 10 9 9 9 8 5 6 7 6 4
17 19 12 11 13 14 13 15 15 15 15 15 13 13 13 14 18 18 17 21 24 22 20 19 19 18 16 15 14 14 13 12 13 13 11 10 10 10 9 9 8 9 9 10 10 11 11 8 8 7 8 7 5 5
17 20 16 14 12 13 13 13 13 15 16 15 12 10 10 14 17 15 12 14 21 21 19 18 17 16 15 14 14 13 13 14 13 10 10 10 11 10 9 10 11 9 8 6 6 6 5 5 5 4 4 3 3 5
15 16 14 12 10 11 13 14 15 14 13 14 13 11 12 10 9 10 11 11 11 13 17 18 17 17 16 15 14 14 14 15 14 14 14 13 13 12 12 11 11 13 11 7 5 6 6 6 5 6 7 7 5 4
13 13 12 11 11 12 13 15 15 14 15 14 13 13 10 7 4 5 8 11 11 10 12 15 17 18 16 15 14 13 13 13 13 14 14 13 12 12 12 11 10 10 10 8 7 8 5 4 3 3 3 3 2 1

GFSWCAN_sfc_30mbdewp_123.txt.gz
Dewpoint
42 41 40 39 40 40 40 40 40 41 40 38 38 39 41 42 42 40 39 39 30 26 28 32 35 32 31 29 23 27 23 24 25 23 22 22 22 23 23 28 27 24 22 20 21 17 14 29 27 23 28 31 30 28
42 41 41 40 40 40 40 40 40 40 40 39 39 39 41 42 41 39 38 41 37 30 28 36 35 34 32 32 30 31 26 26 29 23 24 26 24 25 23 21 28 23 28 23 25 23 29 30 29 31 32 31 30 29
43 42 42 41 40 40 40 38 39 40 39 40 39 39 40 40 40 39 38 38 34 30 27 28 30 34 36 34 34 26 29 30 31 31 28 28 25 24 21 20 25 29 29 26 26 28 28 28 28 29 30 29 29 31
42 41 42 42 41 40 39 38 39 40 40 39 39 39 39 40 40 38 37 38 34 31 25 26 32 28 36 36 34 33 33 33 32 31 27 26 24 26 23 24 27 29 27 25 24 27 28 27 26 27 27 29 27 25
41 42 42 42 41 40 39 40 40 40 40 39 39 38 38 38 38 38 38 38 36 29 24 25 29 31 33 35 34 34 33 31 28 24 26 25 27 26 26 28 25 27 24 22 21 27 27 26 28 29 27 26 28 27
40 41 41 41 41 39 38 40 40 40 39 39 38 36 36 38 36 31 26 36 39 39 28 19 28 28 31 35 35 34 34 32 30 28 27 26 28 26 23 19 29 28 29 31 28 29 28 28 29 30 30 28 27 26
39 39 41 40 42 40 39 40 40 39 38 39 38 36 37 38 35 29 27 38 41 39 29 22 24 30 33 33 33 34 35 33 31 30 28 26 24 28 26 23 28 28 29 28 30 28 25 27 25 27 30 28 27 25
39 39 39 41 40 40 40 40 39 38 39 38 38 37 37 36 31 28 37 41 42 36 33 23 23 29 32 30 29 31 32 31 31 30 28 27 27 27 24 28 29 29 28 27 27 28 26 25 24 24 26 24 21 20
38 38 38 39 40 40 40 39 38 39 38 37 37 36 31 29 25 27 38 41 40 35 26 24 22 23 33 32 30 30 28 22 28 27 26 27 24 24 23 27 26 24 24 28 28 26 23 21 18 18 19 18 17 16
37 36 36 38 40 40 39 39 38 38 38 36 30 24 22 27 34 38 36 33 33 33 31 25 28 24 30 29 28 27 30 26 24 26 29 25 21 23 22 22 21 20 24 26 22 20 22 17 16 16 15 15 14 15
35 34 35 36 39 40 39 38 38 38 32 28 26 23 28 36 32 28 25 24 28 24 28 26 26 24 31 27 26 28 25 27 23 24 26 24 20 21 22 20 19 18 18 19 19 19 20 17 16 15 14 14 14 14
33 33 35 37 36 38 39 37 36 33 29 28 30 34 34 29 26 20 21 23 24 21 26 25 27 28 30 30 27 28 24 25 19 30 26 22 19 20 18 17 16 15 15 15 16 16 16 15 14 13 13 13 13 13
32 32 33 36 36 38 38 37 34 35 35 32 29 28 24 24 18 17 15 21 21 24 26 28 27 27 33 30 28 26 23 20 26 24 22 19 19 18 17 16 15 14 13 13 13 13 13 12 11 11 10 10 11 11
33 32 32 32 34 37 40 36 36 33 27 23 21 18 20 18 20 18 18 19 23 25 27 28 29 28 30 27 24 21 21 22 20 18 19 17 18 17 16 16 14 13 12 11 11 11 11 11 10 10 10 9 10 10
33 32 33 32 33 35 39 36 35 32 27 23 23 16 19 22 27 28 26 28 30 30 28 28 28 28 26 24 23 20 20 19 20 18 17 17 17 17 16 14 12 11 10 10 10 10 10 10 10 11 9 8 7 8
32 31 31 33 33 35 37 36 34 31 27 24 23 21 22 23 24 24 30 30 33 30 29 28 26 24 23 22 21 18 17 16 18 19 16 17 16 15 14 13 11 10 10 11 10 10 10 9 9 9 8 7 7 7
32 30 32 33 34 36 36 33 31 25 23 23 21 25 24 24 25 28 30 31 33 30 26 25 22 20 24 21 20 21 19 19 18 18 17 16 15 14 13 12 11 11 12 12 12 11 9 9 10 9 8 9 9 9
28 33 32 34 34 35 33 32 28 24 20 22 21 21 25 27 27 28 29 31 31 31 28 23 25 23 20 18 18 19 20 18 17 16 15 15 14 13 13 12 11 11 11 11 10 10 11 11 11 11 11 11 11 12
33 33 35 35 34 32 29 29 29 20 20 23 23 26 27 27 27 27 28 29 31 32 28 25 23 23 22 21 21 17 18 17 16 14 13 13 13 13 12 12 12 11 10 11 12 13 13 13 13 13 12 13 13 13
35 35 36 36 35 31 27 27 29 25 20 21 24 25 25 25 26 26 27 28 30 31 28 24 23 22 22 22 19 18 17 16 15 15 13 12 12 12 13 13 13 12 12 11 12 13 15 14 15 15 16 14 13 13
33 34 35 35 34 32 29 26 25 25 23 21 24 25 23 24 23 22 24 27 28 27 26 24 23 23 20 19 19 18 17 17 16 14 13 12 12 14 13 13 13 12 12 11 12 13 14 13 12 14 13 12 9 9
33 33 33 33 29 29 28 29 26 24 22 24 25 24 21 20 22 23 26 25 25 24 23 23 24 22 21 20 19 19 18 17 15 14 14 13 13 14 14 14 13 12 12 12 15 14 14 15 14 13 11 8 3 6
33 32 29 29 25 25 24 29 23 23 20 20 24 21 21 22 23 24 22 22 22 20 21 22 22 21 20 18 19 18 17 16 15 15 15 15 15 14 14 14 14 12 13 15 16 13 14 15 14 12 10 6 5 6
33 28 24 22 23 21 26 24 27 23 22 22 21 19 21 21 21 20 18 18 20 19 22 22 22 20 20 19 18 17 17 16 15 15 15 15 14 14 15 15 16 17 16 16 17 15 13 13 12 9 8 10 6 2
21 21 24 21 26 22 20 21 23 22 18 19 20 19 20 19 17 17 16 16 20 21 21 22 22 21 20 18 18 18 18 16 15 15 16 15 15 16 17 17 17 17 17 16 14 12 10 10 10 8 7 9 11 10
19 21 21 22 23 21 20 19 19 17 17 18 19 16 16 17 16 15 16 19 20 22 22 22 21 20 20 19 18 18 19 18 16 15 17 19 18 17 16 16 16 17 16 16 13 11 8 7 6 7 7 6 7 6
20 20 23 26 25 26 23 21 22 20 19 16 16 17 16 14 13 15 19 19 20 20 22 24 22 21 20 20 20 20 20 19 17 16 19 20 19 18 17 16 16 16 14 13 12 11 10 9 7 8 9 6 6 7
20 22 18 21 22 22 21 20 21 19 17 17 16 16 15 13 12 13 17 19 20 21 22 23 23 21 20 19 18 18 16 15 15 15 14 13 12 13 14 14 13 14 14 13 12 12 11 10 9 7 6 6 6 3
19 21 20 17 18 18 17 18 18 16 16 17 16 14 12 14 13 12 14 16 19 22 20 19 18 17 16 16 16 16 16 16 15 15 15 14 14 13 11 12 12 11 11 11 12 12 12 11 9 8 7 6 7 5
18 20 16 14 16 16 13 14 15 15 15 14 14 13 13 14 12 12 11 11 16 18 18 18 17 17 16 16 15 14 13 13 14 14 13 13 13 11 11 11 10 10 10 10 10 12 12 10 9 6 6 5 5 5
20 19 15 14 13 13 13 12 12 13 15 13 10 9 11 12 12 10 8 9 11 16 17 16 16 15 15 15 14 14 14 13 10 11 10 10 10 10 10 9 9 9 9 9 10 9 7 7 7 8 8 7 6 6
17 16 14 12 9 11 12 14 14 13 13 13 11 9 10 8 4 5 8 7 7 7 8 11 15 15 15 16 15 15 14 13 13 11 11 9 9 9 9 10 8 7 7 7 7 6 6 6 6 5 5 4 4 4
13 12 9 9 10 10 11 13 13 13 11 11 11 9 6 3 2 3 5 7 6 8 9 9 9 9 11 13 14 13 12 12 12 13 12 11 10 10 10 10 10 9 6 4 4 6 5 5 5 5 5 4 4 3

GFSWCAN_sfc_30mbdewp_126.txt.gz
Dewpoint
43 41 42 40 42 41 40 40 40 40 38 38 39 41 43 42 41 39 38 38 29 27 28 32 34 30 30 27 19 26 23 23 25 22 21 22 21 24 22 27 26 22 21 18 19 17 13 28 26 22 26 30 30 28
43 42 40 39 41 40 40 40 41 40 39 38 39 41 42 41 40 39 35 39 36 27 28 35 35 34 32 30 29 30 24 26 29 23 23 25 24 25 23 20 27 23 24 21 24 23 29 29 28 31 30 30 29 28
42 42 40 39 39 40 39 39 40 40 39 39 39 41 41 41 41 39 36 36 32 26 26 29 30 33 36 34 33 25 29 30 31 30 27 27 23 24 20 20 25 29 29 25 25 27 28 27 27 28 30 28 27 28
43 41 40 39 40 41 39 38 39 40 40 40 39 40 40 40 40 38 35 35 32 28 24 28 31 28 36 35 33 32 33 33 32 29 26 25 22 26 23 24 26 27 27 25 24 27 28 27 27 27 28 29 28 27
42 41 40 41 41 41 40 39 39 40 40 40 39 39 39 40 39 37 37 38 36 26 22 24 28 31 33 34 34 33 32 31 27 24 25 23 27 26 26 27 25 27 24 22 21 27 27 27 29 30 27 27 27 25
41 42 42 41 41 40 39 39 39 40 40 39 39 38 38 38 33 29 26 35 39 35 25 19 28 28 34 35 35 33 33 31 30 27 26 26 27 26 22 19 28 29 30 30 27 28 28 28 27 27 28 27 25 23
41 41 42 42 41 39 40 40 40 40 40 39 38 38 38 37 35 27 26 36 40 35 26 20 25 30 34 34 33 34 35 33 32 30 27 26 25 29 25 22 28 29 29 29 31 29 25 26 24 28 26 25 24 22
41 42 42 40 41 39 40 40 40 40 40 39 38 37 35 34 31 31 39 41 39 34 30 21 24 30 33 30 30 31 32 32 32 30 28 26 27 26 21 26 28 29 27 27 27 27 25 23 22 23 23 22 19 18
39 41 41 41 41 40 40 39 39 39 39 38 37 33 28 27 24 31 41 39 39 32 24 24 23 25 33 31 29 29 28 22 28 26 26 26 23 23 24 28 28 25 27 27 24 22 20 18 17 17 16 16 16 15
39 40 41 41 41 39 39 39 39 39 38 34 28 23 20 27 36 39 34 31 30 32 30 24 27 27 31 28 27 26 28 25 22 25 28 25 21 23 23 22 22 23 25 29 24 21 19 17 16 15 15 15 14 13
37 39 39 39 40 39 39 39 38 38 31 27 24 25 30 36 31 27 24 23 27 24 27 26 26 26 30 26 25 27 24 27 21 24 25 23 22 21 22 20 19 19 19 20 21 20 19 17 16 14 14 14 14 13
37 37 39 39 39 39 38 39 36 30 26 26 30 33 32 27 24 19 21 22 23 21 26 25 25 27 30 29 27 28 23 25 18 29 26 22 20 21 19 17 16 16 16 17 17 16 16 15 14 13 13 12 12 11
36 37 38 41 40 39 38 36 32 35 35 30 28 25 21 23 17 16 14 20 21 24 26 27 25 27 32 29 27 26 21 20 25 22 21 20 19 19 17 15 14 14 14 14 14 14 13 11 11 11 10 10 9 10
35 37 38 39 40 38 37 36 36 31 26 20 19 17 19 17 17 17 17 19 23 25 25 27 27 27 28 25 23 22 21 21 20 18 17 18 18 18 16 15 14 13 12 11 10 10 9 8 9 8 9 7 9 10
34 36 37 38 39 37 35 37 34 30 25 22 20 13 18 20 24 27 24 25 28 30 27 28 27 27 26 24 23 20 19 18 18 16 16 16 18 17 16 15 13 11 10 9 9 9 9 9 10 9 7 6 8 7
33 33 34 37 37 39 37 34 32 29 27 24 22 19 20 21 21 21 26 27 32 29 30 29 25 23 23 21 20 17 15 15 16 19 16 18 17 16 15 13 11 10 9 9 9 9 9 9 9 9 6 6 7 8
31 30 33 35 38 37 36 33 30 24 22 21 20 23 24 22 23 25 28 30 32 30 28 29 21 19 23 19 19 19 17 18 17 17 17 17 16 15 13 11 9 9 9 9 9 9 8 8 8 8 6 8 8 7
30 33 34 37 36 35 33 32 26 23 16 21 17 19 23 26 27 27 28 30 29 30 30 23 23 21 18 17 18 19 19 16 17 16 15 15 14 13 12 10 9 10 10 10 10 8 8 9 9 8 8 8 9 10
33 33 34 34 34 32 29 29 28 17 18 21 21 23 26 27 27 26 27 29 30 31 29 25 24 22 19 20 18 16 17 17 16 14 13 12 13 12 11 10 10 10 11 10 10 10 10 10 11 11 11 11 11 12
35 34 33 36 35 30 26 27 29 24 20 21 23 24 25 24 26 25 25 27 29 30 27 25 24 23 22 22 20 19 17 16 14 15 13 12 11 11 11 11 11 10 10 9 10 12 12 13 13 14 13 13 12 12
33 34 34 34 33 32 28 25 25 24 23 20 23 24 23 24 23 22 22 27 25 27 26 26 23 20 20 19 17 18 17 17 17 16 15 13 11 12 11 12 11 12 10 11 11 12 13 14 13 14 14 12 11 11
32 33 32 32 29 27 26 27 25 24 22 24 24 25 21 19 20 22 25 24 24 23 24 23 23 24 21 21 19 18 17 17 15 14 14 13 12 12 12 12 12 11 11 10 11 12 13 14 12 13 12 9 6 7
31 30 28 28 24 22 22 29 22 23 20 20 24 21 20 21 22 24 22 22 21 19 19 20 21 19 19 17 18 17 16 16 15 14 13 14 13 13 13 13 13 11 11 11 12 13 13 13 13 12 9 6 3 4
30 25 22 20 21 19 24 24 26 24 22 20 20 18 20 21 22 20 18 18 17 19 20 20 20 20 19 19 17 17 16 16 15 15 15 14 13 14 14 14 14 13 13 13 15 15 13 13 13 11 9 7 4 4
19 18 22 18 22 21 20 20 21 21 18 18 19 18 19 19 18 16 16 16 20 21 20 20 21 20 19 17 17 17 17 16 15 14 15 15 14 15 14 15 15 15 16 14 14 14 13 11 11 10 9 8 9 7
17 18 19 19 22 20 18 18 18 18 16 17 18 16 16 17 16 14 15 17 18 20 21 22 21 20 19 18 18 18 17 17 16 14 16 16 15 14 14 13 13 14 17 16 14 14 13 11 11 10 9 8 7 8
19 20 23 26 26 25 22 21 21 20 18 16 16 17 16 14 13 14 16 17 17 18 19 19 23 22 21 20 19 19 19 17 16 15 16 18 17 16 15 13 13 15 16 16 15 15 14 11 9 9 9 6 6 7
20 22 19 21 22 22 21 21 21 20 20 17 16 16 15 13 11 10 14 15 14 16 19 20 22 23 22 21 19 18 15 14 15 15 15 15 13 14 15 16 15 16 15 15 14 12 12 11 9 8 8 8 9 7
19 21 20 18 19 18 18 19 19 17 16 17 17 13 11 11 9 8 9 10 12 17 18 18 17 16 16 16 16 16 16 16 16 15 14 14 15 16 12 12 13 13 13 12 13 12 11 11 10 9 8 8 7 6
19 19 17 15 17 17 15 14 15 14 15 15 14 13 12 10 9 9 7 7 8 10 15 14 14 15 16 17 16 15 14 14 14 14 14 14 14 13 12 12 12 10 10 11 12 13 13 11 9 6 6 5 5 5
20 19 16 15 14 13 13 11 11 12 14 12 11 11 9 8 8 7 6 6 8 8 7 8 13 14 14 14 14 15 16 14 11 11 11 11 11 11 10 9 8 8 9 9 10 9 8 8 8 8 7 6 6 6
17 16 15 12 11 12 12 13 14 13 12 12 10 8 8 6 3 3 5 4 4 4 6 7 6 6 8 15 16 16 16 16 16 14 12 10 9 8 8 8 7 8 8 9 8 7 7 7 7 7 7 7 6 6
12 11 9 9 10 11 11 13 11 11 9 9 7 6 2 1 -0 1 3 4 4 4 4 5 8 8 8 8 9 10 10 11 12 12 11 10 8 9 8 8 7 7 7 7 6 6 5 5 5 5 5 5 5 5

GFSWCAN_sfc_30mbdewp_129.txt.gz
Dewpoint
43 43 42 42 42 41 40 39 40 39 38 39 40 43 42 41 41 37 37 38 30 29 29 34 33 29 27 24 19 27 24 24 25 22 21 23 22 24 24 27 24 20 19 17 18 17 15 26 24 21 25 30 28 28
43 43 42 43 42 41 39 38 40 39 40 39 41 43 42 41 40 37 32 37 36 29 29 35 35 34 32 28 29 29 24 27 28 23 24 25 24 25 23 21 27 23 23 20 21 22 28 29 27 29 29 27 26 26
43 42 42 42 42 40 40 40 40 40 40 39 41 41 41 41 40 36 34 34 30 27 27 30 29 33 35 33 31 25 29 32 31 29 27 27 23 25 21 20 25 27 28 26 24 27 27 28 28 28 28 26 27 26
43 41 41 41 41 40 39 39 40 40 40 40 41 41 41 41 39 36 34 35 30 28 27 27 30 30 36 34 32 33 33 33 32 29 26 25 21 27 23 24 25 26 27 25 25 28 27 27 27 27 28 27 27 25
43 42 40 41 41 41 40 40 38 40 41 40 41 40 41 39 38 37 37 38 36 27 25 25 29 31 34 34 33 33 31 29 27 25 25 23 27 27 26 27 25 27 25 24 21 28 26 27 28 28 28 26 25 23
41 42 40 41 41 41 40 40 37 39 40 40 40 40 38 35 31 29 25 34 39 32 24 22 28 31 35 35 33 32 32 31 30 27 27 27 28 26 23 21 26 29 30 30 27 29 28 28 26 28 27 25 23 22
42 41 40 41 41 41 40 40 38 40 40 39 39 37 37 37 36 28 27 34 40 34 23 23 27 30 35 34 33 35 35 33 32 30 27 27 25 30 26 22 28 30 30 30 30 28 26 26 24 26 24 23 21 20
42 41 41 41 41 40 40 39 38 39 39 39 37 37 37 36 34 34 38 41 37 31 26 24 26 31 33 30 30 31 32 32 31 30 29 26 27 27 21 25 29 29 27 28 27 26 25 24 23 23 22 20 17 16
41 42 42 41 41 40 39 39 39 39 39 35 33 31 27 27 27 36 39 37 36 29 23 23 24 25 32 30 30 29 28 25 27 26 26 26 24 23 24 26 28 27 27 24 23 21 20 19 18 17 16 16 15 14
42 42 41 41 40 40 39 40 39 39 37 32 26 22 20 31 36 39 31 28 29 30 29 24 26 27 30 28 27 27 28 25 22 24 28 26 23 23 24 26 25 27 27 25 22 20 18 17 16 15 14 13 13 13
41 41 41 41 39 37 39 39 39 35 30 26 25 27 31 36 29 26 23 23 26 23 26 26 26 28 31 25 25 27 24 25 20 24 25 23 22 22 23 21 21 22 24 23 22 21 20 18 15 14 14 13 12 12
41 41 41 40 38 39 39 39 33 28 26 26 32 34 31 26 22 18 21 23 23 21 25 24 25 29 31 29 27 28 22 26 18 28 25 21 22 22 21 19 18 18 18 18 18 17 16 15 14 13 12 12 11 11
39 40 40 39 38 39 38 33 31 34 33 28 25 23 20 22 14 13 14 19 20 24 26 26 25 30 31 29 27 25 20 19 25 22 19 21 21 21 19 16 15 15 16 16 15 15 14 13 13 12 11 10 9 8
38 39 40 39 38 38 34 37 35 29 24 19 18 17 15 16 16 17 18 21 23 26 26 26 26 28 27 25 24 21 21 21 19 17 16 20 20 19 17 15 14 14 14 13 12 10 10 9 9 9 9 8 9 8
38 39 39 39 38 36 37 34 31 28 24 20 16 14 18 19 22 26 25 25 27 29 27 28 27 27 25 22 23 20 18 17 17 15 17 18 19 18 17 15 14 13 11 10 9 8 8 9 9 9 7 8 8 6
35 36 37 40 36 36 34 31 29 28 25 22 21 19 20 21 21 22 25 26 30 31 29 30 25 23 23 21 20 17 16 14 15 19 19 18 18 17 16 15 13 11 10 9 9 9 9 9 9 9 7 8 8 8
32 33 38 39 37 35 33 29 26 23 21 19 19 22 23 22 23 24 27 29 32 30 27 29 22 20 24 19 17 19 17 17 18 18 17 19 18 17 15 13 11 10 10 9 9 9 9 9 8 8 9 8 8 8
32 37 37 36 35 35 33 30 24 21 16 20 16 20 23 24 26 26 27 29 30 29 30 27 24 21 18 17 17 19 19 17 17 17 17 17 16 15 14 12 10 10 10 9 9 9 8 8 8 8 8 9 9 10
35 36 37 36 35 32 27 28 26 15 17 20 20 22 25 26 27 27 27 27 30 30 29 26 23 21 19 19 19 18 17 18 19 16 14 13 15 14 12 10 10 10 10 9 9 9 9 9 10 10 10 10 10 11
35 35 36 35 34 28 25 26 28 22 18 21 23 23 25 24 25 25 26 26 28 29 27 25 24 24 23 23 22 20 19 17 15 15 14 13 12 12 11 10 11 11 10 10 10 10 10 11 11 13 13 13 13 13
31 33 34 33 30 29 26 25 24 24 22 19 22 23 22 23 23 23 22 26 25 25 24 26 25 21 17 19 17 18 18 17 17 18 17 14 11 13 11 12 11 12 11 11 11 11 12 13 14 14 15 15 14 14
32 33 30 31 27 25 25 27 24 24 22 23 23 24 21 19 19 21 24 23 22 22 23 23 22 22 22 22 19 18 18 18 16 15 14 13 13 12 12 12 12 12 11 11 11 12 13 14 15 15 15 13 11 11
30 28 27 26 21 21 23 28 21 23 18 19 23 20 20 20 21 24 21 22 20 19 18 19 19 18 19 17 17 17 17 17 16 15 15 15 15 14 13 12 13 12 11 11 12 13 13 14 13 14 12 10 9 8
28 23 19 18 19 19 23 23 26 23 22 20 19 17 19 20 22 20 18 17 18 21 21 21 20 20 19 19 18 17 17 16 15 15 15 14 14 14 13 13 14 13 12 12 13 14 14 13 14 12 11 11 8 7
13 15 20 16 21 19 19 19 21 21 17 18 19 18 19 20 18 17 16 16 18 21 19 20 22 21 20 18 17 17 17 16 16 15 15 15 14 14 14 14 14 14 15 14 13 13 13 13 12 13 11 11 11 8
16 16 18 17 18 20 18 17 18 18 17 17 17 16 16 17 16 14 14 15 16 17 17 17 17 19 21 20 19 18 17 17 16 15 15 15 14 14 14 13 14 14 16 15 14 14 14 13 12 12 12 11 10 10
17 19 22 25 25 25 21 21 21 19 17 16 17 17 16 14 12 13 14 14 13 14 15 17 18 19 21 22 20 19 18 17 16 15 16 17 16 15 15 14 13 14 16 16 15 14 14 13 13 12 12 12 11 10
20 21 19 21 22 23 21 20 20 19 20 18 17 16 15 13 12 8 11 12 10 11 14 18 18 18 19 20 19 17 15 15 15 16 16 16 14 15 15 15 15 15 16 17 17 16 16 15 14 13 12 12 10 9
21 21 20 19 19 19 19 19 19 17 17 19 18 13 9 7 6 5 7 8 9 10 12 13 14 15 16 15 15 16 16 17 17 16 15 14 15 16 15 15 16 16 15 15 15 15 15 14 13 12 11 10 10 9
18 19 18 16 17 17 14 14 14 13 15 15 14 12 9 7 6 7 5 5 5 6 7 9 12 13 13 13 14 14 14 16 16 18 17 16 15 15 14 15 15 13 12 13 14 14 14 12 10 9 9 8 8 7
20 19 16 15 14 12 12 12 12 13 13 12 11 10 6 5 6 6 4 4 6 6 5 5 6 7 7 10 13 15 16 16 16 16 17 17 16 13 12 11 11 10 11 12 12 12 11 11 11 10 9 8 7 7
17 16 15 13 12 12 12 13 13 12 11 11 8 7 6 5 1 2 4 3 2 2 3 3 4 5 7 8 10 11 12 13 14 13 14 14 11 10 9 9 9 10 10 11 11 10 10 11 9 9 8 7 7 7
12 12 11 11 11 11 11 12 11 10 9 8 5 4 1 2 -1 0 2 2 2 1 1 2 4 6 8 7 7 8 9 9 9 10 9 8 8 8 9 9 9 10 9 10 9 8 7 7 7 7 7 7 6 5

GFSWCAN_sfc_30mbdewp_132.txt.gz
Dewpoint
43 43 42 42 42 40 40 41 40 39 39 39 42 42 42 41 40 38 38 38 36 32 32 33 31 27 26 22 21 28 23 25 25 24 20 22 20 21 20 24 23 21 19 19 18 17 17 25 23 23 26 28 26 26
42 43 42 42 42 40 40 40 40 40 39 41 43 42 41 41 39 37 34 37 39 35 33 35 35 35 31 29 27 28 25 26 25 24 25 23 22 23 20 19 27 22 24 21 22 24 27 27 27 28 27 25 25 25
40 43 42 42 42 41 41 41 40 41 40 42 43 41 41 41 39 36 37 37 34 32 29 29 30 35 35 34 34 24 29 32 31 32 27 27 23 25 20 21 25 27 27 24 24 26 26 26 26 27 25 25 25 24
41 42 42 42 42 41 40 42 40 41 41 42 42 42 41 40 38 37 37 36 34 31 28 29 31 33 35 35 36 34 33 34 32 29 26 24 21 26 21 23 22 25 26 27 27 28 27 26 27 26 26 25 24 23
42 43 43 42 41 40 41 40 39 41 41 41 42 41 40 40 39 38 39 39 36 30 27 28 31 34 35 34 32 32 30 29 25 27 26 24 24 24 25 24 24 26 26 24 25 29 28 27 28 27 26 24 24 22
42 42 42 41 40 40 40 39 40 40 42 41 41 40 37 34 32 31 30 37 38 37 28 25 31 33 35 34 33 32 31 31 28 26 28 27 28 25 21 18 27 29 29 29 28 31 29 28 27 27 27 25 23 21
42 41 41 40 40 40 40 38 39 40 41 40 38 38 39 38 38 32 30 37 39 37 30 26 29 33 34 34 34 34 33 31 29 26 25 24 24 27 24 19 26 29 29 29 29 28 27 27 25 26 25 23 21 20
42 41 41 41 41 40 39 38 39 38 40 38 40 39 36 36 36 34 37 38 38 32 30 27 29 32 35 30 28 33 28 28 28 27 25 24 27 26 22 24 27 28 28 29 29 28 27 26 25 23 23 20 18 17
42 41 41 41 41 40 38 38 38 39 38 37 33 31 31 32 33 34 39 38 38 32 27 29 24 26 34 32 32 30 29 24 27 25 24 26 24 23 26 26 28 27 26 26 25 24 24 23 22 20 19 17 16 15
41 41 41 41 40 40 38 38 38 37 34 30 29 28 28 34 37 38 33 31 31 30 30 27 28 28 30 30 29 26 28 25 24 25 28 25 24 27 28 27 28 28 26 24 23 21 20 19 18 17 15 14 13 13
41 41 40 41 38 39 39 37 37 32 30 30 30 29 34 37 31 29 27 25 26 24 26 27 27 28 32 25 28 29 23 24 20 25 24 23 22 26 26 27 28 28 26 26 25 24 21 20 17 16 14 13 12 12
42 41 40 40 39 40 40 38 33 30 28 30 35 36 32 27 25 22 22 24 22 20 25 27 28 30 32 33 28 27 22 24 19 29 25 21 25 24 24 23 23 25 25 24 23 22 20 18 16 14 13 12 12 13
41 40 40 39 40 39 37 32 30 35 35 31 28 26 24 23 16 14 16 19 20 26 26 28 29 32 32 31 28 27 20 21 26 22 20 23 25 23 23 21 20 20 20 20 19 18 18 17 15 14 13 14 13 12
41 39 38 39 39 37 33 36 36 30 28 25 21 18 17 17 17 18 20 22 27 28 27 30 29 30 31 28 27 21 24 22 20 18 18 25 25 22 21 20 18 18 18 18 18 17 15 13 13 13 13 12 12 11
41 39 38 39 36 36 37 34 32 32 27 22 19 17 20 23 26 27 28 28 30 30 29 30 30 29 28 26 26 23 21 18 18 18 23 27 25 22 20 18 18 17 17 16 15 13 12 11 12 11 11 13 12 10
40 39 37 36 37 35 33 31 32 30 25 23 22 21 24 24 26 28 27 28 32 31 33 32 27 26 25 23 21 20 17 16 21 25 28 25 23 22 21 19 18 17 15 14 14 13 12 12 12 12 12 12 11 11
36 32 38 38 36 35 33 31 28 24 21 20 23 25 26 26 26 27 29 30 33 32 27 29 24 23 25 21 19 19 20 25 28 27 25 24 23 22 21 19 17 15 15 14 13 13 13 13 13 11 11 12 12 11
32 37 38 35 33 34 32 30 23 18 17 22 22 25 26 29 28 28 29 31 31 29 31 27 25 23 22 18 19 24 28 27 25 25 25 24 24 22 20 18 15 15 14 14 13 13 13 12 11 11 12 11 11 11
35 36 36 35 34 31 27 27 24 16 22 23 24 26 27 29 30 29 30 29 31 32 31 29 26 23 22 24 28 31 29 27 27 24 22 21 22 20 19 17 15 15 14 13 13 12 12 12 11 11 11 11 10 11
37 37 36 35 34 27 23 25 28 20 18 24 25 25 26 27 28 28 28 27 28 30 28 26 27 31 31 33 31 32 30 27 23 22 21 20 20 18 18 16 15 15 14 14 14 13 12 11 12 11 11 11 12 12
33 34 34 33 30 28 24 24 22 23 22 21 23 23 24 25 25 26 25 26 26 25 25 30 32 31 26 25 24 24 25 24 25 25 25 21 20 19 18 17 16 15 13 13 13 12 12 12 12 12 15 15 16 16
32 31 31 31 26 25 25 27 23 24 22 23 23 23 22 23 23 24 25 24 22 25 25 25 25 25 25 27 25 24 24 23 22 19 20 20 19 19 18 17 15 15 15 15 14 14 13 13 14 14 16 17 18 16
30 29 28 25 22 22 23 28 23 22 20 21 22 20 21 22 23 25 23 23 23 23 22 21 22 23 22 23 21 21 21 21 22 21 20 21 21 20 19 18 17 17 16 15 14 15 15 14 15 17 17 18 17 16
28 25 20 21 21 20 24 22 23 22 22 20 19 18 19 22 23 22 20 21 21 22 20 21 22 22 23 22 22 22 21 21 21 20 20 19 19 19 18 17 17 17 16 15 14 15 16 17 17 17 17 16 16 16
12 15 20 17 21 21 20 21 21 20 19 19 19 19 20 22 20 19 18 18 19 19 19 19 19 20 21 21 23 22 19 19 19 19 20 18 18 17 17 16 16 16 16 16 16 16 17 18 18 17 17 16 16 16
13 18 19 18 19 19 19 18 19 19 19 19 19 19 20 20 18 17 16 17 17 17 17 16 17 18 19 22 22 22 21 20 19 18 18 17 18 19 19 17 16 16 16 17 18 17 17 17 17 17 17 17 16 16
16 19 22 22 25 25 22 23 23 21 19 18 20 18 19 16 15 15 15 13 13 14 14 16 17 18 18 21 23 23 22 20 20 19 18 18 18 17 18 19 17 18 18 18 18 18 17 17 17 17 17 18 18 16
21 22 20 23 23 24 22 22 21 20 22 21 20 17 17 16 13 10 11 11 11 12 14 17 18 18 18 18 20 21 20 19 19 19 19 18 18 19 19 19 19 18 19 19 19 18 18 18 18 18 18 18 18 18
22 23 22 19 21 22 22 21 22 19 18 21 21 16 11 7 7 7 8 9 11 12 12 13 15 18 20 19 19 19 20 21 21 19 20 19 18 20 20 20 20 20 21 21 19 19 19 19 19 20 20 19 19 18
20 22 21 19 18 19 20 18 18 17 17 17 14 10 8 7 6 8 7 8 8 9 10 11 12 12 14 16 18 18 19 20 20 20 20 19 20 20 20 21 21 21 21 21 21 19 17 18 16 15 16 15 15 14
21 20 19 18 17 17 16 16 16 17 17 15 15 12 8 6 6 6 5 7 8 8 8 8 9 10 10 10 12 15 16 18 18 18 19 20 21 20 18 18 20 20 20 20 19 18 17 17 17 16 15 14 14 13
19 18 17 15 15 15 15 16 16 15 14 14 11 10 8 8 4 4 4 5 5 4 5 6 6 7 9 10 12 13 12 14 14 15 15 17 17 15 15 15 16 17 17 17 17 16 15 16 15 14 13 12 11 11
15 15 15 15 13 13 14 15 13 12 12 9 7 6 5 5 0 2 6 6 4 4 4 5 6 7 9 9 9 11 11 12 11 11 10 10 9 12 15 16 15 15 15 15 14 13 12 11 10 10 10 10 9 9

GFSWCAN_sfc_30mbdewp_135.txt.gz
Dewpoint
41 43 43 43 42 41 40 39 40 40 39 40 43 42 42 42 40 39 38 41 36 33 33 30 28 25 22 21 22 24 23 25 22 22 18 19 18 20 18 21 23 20 19 19 17 15 16 25 23 24 28 27 26 25
41 42 43 42 41 41 40 40 40 40 40 42 43 42 41 40 38 37 33 38 36 33 34 36 35 33 31 29 27 27 24 22 21 22 25 20 21 23 18 19 24 22 23 24 23 26 27 27 27 27 27 26 26 25
41 43 42 42 42 41 41 41 41 40 41 43 42 41 41 40 38 37 36 35 34 35 30 29 31 33 34 34 33 25 26 30 29 35 24 25 21 23 18 22 25 26 26 25 24 25 25 26 26 26 26 25 24 24
41 43 42 42 41 41 41 41 41 41 42 43 42 41 40 38 36 37 35 37 32 28 26 29 32 33 35 33 32 33 33 33 32 29 25 25 21 27 19 22 22 24 25 26 28 26 26 25 26 27 26 26 24 22
41 42 42 42 41 41 41 40 41 42 42 42 41 40 41 40 39 37 37 36 37 32 26 29 32 34 32 31 30 30 29 27 25 27 27 22 22 22 22 21 25 24 28 24 26 29 28 26 27 26 25 24 23 22
41 44 42 42 41 41 41 39 41 40 41 42 41 40 35 32 32 30 35 36 38 30 28 27 32 33 32 31 30 29 29 28 25 25 27 26 28 26 20 17 25 27 28 30 30 31 30 30 28 26 26 24 22 21
40 42 42 42 41 41 40 40 37 36 42 40 38 38 39 38 36 31 32 36 38 37 29 25 28 33 33 31 30 29 29 28 25 24 23 22 21 25 22 19 24 27 28 30 29 29 28 28 26 27 25 23 22 20
42 42 41 41 42 41 40 39 40 41 40 41 39 38 38 38 37 32 35 38 38 29 28 26 29 32 34 29 27 30 27 27 27 25 24 23 25 24 22 23 26 27 27 28 28 28 28 27 26 24 23 21 20 19
42 41 41 41 41 39 39 40 40 40 41 36 34 33 31 32 30 31 38 38 36 32 28 29 24 26 33 31 29 27 26 25 25 25 23 24 24 24 25 24 25 25 27 27 26 26 26 25 24 23 22 20 18 17
41 41 41 40 40 40 40 39 39 39 34 30 28 31 31 34 39 37 31 34 31 28 30 26 29 28 29 29 28 27 27 26 23 24 27 25 24 31 26 26 27 26 26 26 25 24 24 23 22 21 19 18 16 15
41 41 40 40 39 39 39 38 38 33 30 30 32 31 34 36 31 31 29 23 21 21 26 25 27 29 31 27 28 28 26 24 20 25 24 23 22 28 28 27 27 27 26 26 25 25 23 22 20 18 16 15 14 14
41 40 39 39 38 38 38 36 32 27 27 32 35 35 32 26 26 26 23 22 18 18 27 27 26 28 32 32 27 27 23 24 22 27 24 20 26 28 28 29 29 28 27 26 26 25 23 21 20 17 15 13 14 14
41 40 40 39 38 36 36 31 32 36 36 32 29 28 27 23 20 17 17 17 20 25 28 30 30 31 31 30 28 26 24 23 25 23 20 22 28 26 26 26 27 28 27 26 24 23 21 20 18 16 16 17 16 15
40 39 40 39 39 37 32 37 36 30 28 26 23 19 21 20 17 18 17 23 28 28 29 30 31 28 30 28 27 22 25 23 20 19 20 26 26 25 25 24 25 25 24 23 22 21 20 19 18 17 17 16 15 13
40 40 40 39 36 35 37 34 30 31 27 24 21 19 20 25 27 28 29 29 31 30 32 30 30 28 27 27 28 23 22 19 19 18 27 32 28 25 24 23 23 23 22 22 22 20 17 17 15 15 15 15 14 13
39 38 37 37 38 36 33 32 31 27 24 24 24 22 25 24 27 28 30 29 31 31 33 29 26 26 26 24 22 21 17 17 23 27 32 29 27 26 25 24 24 23 21 21 20 17 15 15 15 15 15 16 13 13
37 36 38 36 35 33 31 30 25 21 20 21 25 29 29 28 27 29 31 31 34 32 28 25 23 22 24 20 19 20 23 28 31 31 30 29 27 27 26 24 22 20 20 19 18 16 16 16 16 14 14 15 14 14
36 37 35 34 31 31 29 28 20 16 19 24 24 27 28 30 29 30 31 32 32 30 30 28 25 23 22 19 18 27 28 33 31 31 31 29 28 27 26 24 20 19 19 18 17 17 16 16 15 14 15 15 14 13
37 36 34 33 32 28 24 24 21 17 23 25 27 28 28 29 30 29 31 31 32 32 30 28 27 22 22 26 30 33 34 32 32 29 28 27 27 25 24 22 20 19 19 18 17 16 16 16 15 14 14 13 12 12
37 36 35 34 32 23 20 22 25 16 17 23 24 23 24 26 28 29 29 26 28 29 26 25 26 31 31 31 32 33 34 33 30 28 27 26 25 24 24 21 20 20 18 18 17 17 16 15 15 14 14 13 13 13
35 35 35 34 28 25 22 21 20 19 19 20 21 20 23 24 24 27 26 24 25 22 23 29 31 30 29 29 29 28 29 29 30 30 30 27 26 24 24 22 21 20 18 17 17 17 16 15 14 13 16 15 15 17
30 31 32 29 25 25 23 24 20 21 20 21 21 20 21 23 24 24 23 24 22 27 27 26 26 25 26 27 27 27 27 27 27 23 25 26 25 24 24 23 21 20 19 19 18 18 17 16 15 15 16 18 17 17
29 27 26 25 24 23 23 25 21 19 20 20 21 19 20 21 22 23 22 21 25 25 24 23 23 24 25 26 26 25 25 25 25 25 25 25 25 26 25 23 23 22 21 19 19 19 19 17 16 18 17 18 19 18
28 27 24 23 22 21 24 21 20 19 20 18 17 18 18 21 23 22 19 23 23 21 21 21 21 22 23 24 25 25 26 24 25 25 25 24 24 24 24 23 22 22 22 21 19 18 19 20 18 17 19 18 20 18
14 19 24 20 22 21 20 19 19 17 17 18 18 18 21 22 20 19 19 21 21 21 19 19 19 19 20 21 22 25 23 22 22 23 24 23 22 22 21 21 21 21 21 22 21 20 20 20 20 19 18 18 18 18
14 22 20 19 20 18 17 17 17 16 17 18 19 21 22 21 18 19 19 20 20 19 17 17 17 17 18 20 21 23 24 24 22 22 22 20 21 23 23 21 20 20 20 21 22 20 19 19 20 19 18 17 17 16
16 19 21 21 22 20 21 22 22 22 20 19 21 20 20 17 18 17 17 15 15 16 16 16 18 17 18 18 20 23 23 24 23 22 20 19 19 19 21 22 21 21 22 21 21 21 20 19 18 19 18 18 18 18
20 22 20 22 22 23 22 23 21 19 22 23 22 19 19 18 15 13 13 13 14 14 16 18 20 18 20 20 21 23 23 23 23 23 22 21 20 22 22 22 22 20 21 22 22 21 21 21 20 19 18 18 18 21
21 23 23 21 23 23 23 23 23 22 22 24 24 20 14 10 10 11 12 13 15 16 15 15 16 18 21 24 23 22 23 23 23 21 21 21 23 22 22 22 22 22 22 23 21 22 22 21 21 20 20 21 22 24
21 23 21 21 20 19 23 22 21 21 19 20 16 12 10 9 9 10 10 11 11 12 13 14 15 15 15 16 20 20 21 21 20 20 20 20 21 23 22 22 22 23 23 23 22 21 20 21 20 20 20 20 20 20
21 22 20 20 20 21 20 20 21 20 20 18 19 17 11 8 9 9 8 10 11 11 10 11 12 12 12 12 13 14 16 17 17 18 19 21 22 21 20 21 21 22 22 23 23 23 21 20 20 20 19 19 19 17
20 20 20 17 19 18 19 19 19 19 17 17 14 12 11 11 7 6 7 7 7 7 7 8 8 9 11 13 14 15 15 15 14 14 14 16 18 18 18 19 19 20 21 20 21 20 19 20 19 18 17 16 15 14
18 19 19 18 16 16 17 18 16 14 15 12 10 10 9 9 3 5 7 8 7 7 6 7 9 10 11 13 12 14 15 15 14 12 12 11 12 14 17 17 18 18 18 17 17 16 15 15 14 13 12 10 10 10

GFSWCAN_sfc_30mbdewp_138.txt.gz
Dewpoint
40 40 40 44 43 43 42 41 41 41 40 41 42 42 42 41 42 39 39 46 40 36 35 30 28 26 25 25 26 27 24 24 28 24 21 20 20 18 22 22 22 22 20 20 19 16 20 24 27 24 29 27 26 26
40 41 41 44 42 42 41 40 41 41 40 41 42 42 40 41 40 39 35 41 41 37 35 36 35 35 33 30 27 27 24 23 24 25 23 23 22 22 23 24 22 24 24 26 25 26 27 29 29 28 27 26 25 24
40 40 40 43 42 41 40 40 41 41 41 43 42 41 41 40 38 36 38 39 37 36 32 32 30 32 33 34 33 24 25 28 30 36 28 28 21 25 21 24 23 27 27 27 25 25 25 26 26 26 26 25 24 23
40 41 42 43 42 41 41 41 41 41 43 42 42 41 39 37 35 38 38 40 37 30 28 29 32 30 31 30 34 34 33 33 33 31 27 26 24 28 22 28 25 23 25 27 26 25 25 25 26 26 26 25 23 22
41 40 43 42 42 41 41 41 41 42 43 42 41 41 39 38 37 39 39 40 40 30 28 30 30 30 30 30 30 32 32 30 27 30 30 25 23 24 23 23 28 25 28 25 25 27 28 27 27 27 25 24 23 22
41 42 43 42 42 41 41 41 41 42 42 42 41 36 35 36 36 35 32 37 39 31 29 26 32 29 30 30 29 29 29 26 24 27 30 30 29 30 22 19 26 28 32 32 31 30 30 29 27 26 25 24 22 21
40 41 42 42 42 41 40 39 41 42 41 39 37 36 36 35 37 33 34 37 37 40 29 25 26 33 31 29 29 29 29 27 25 24 25 22 22 26 23 23 26 27 27 30 31 31 28 27 27 27 25 23 22 20
42 43 42 42 41 40 39 38 41 40 40 39 39 38 37 37 38 31 35 37 40 34 28 27 29 28 32 28 27 29 26 26 28 25 24 23 24 25 22 25 26 26 28 29 29 28 29 28 27 25 24 22 20 19
42 42 42 42 41 40 39 39 40 40 39 35 33 34 35 33 30 30 36 37 39 33 28 29 24 24 32 31 27 28 27 28 26 27 24 24 24 25 26 25 24 25 27 27 27 27 27 26 24 23 22 21 19 18
43 42 42 41 40 40 41 40 39 38 34 30 31 35 32 33 37 37 33 34 32 26 30 28 29 27 28 30 28 28 28 27 25 25 26 25 26 31 26 25 24 26 26 27 26 25 25 24 23 22 22 20 18 17
42 41 41 40 40 40 40 40 36 31 32 32 33 32 33 35 32 32 26 25 22 22 25 28 28 29 30 26 28 28 27 26 21 24 24 23 23 30 25 26 26 26 27 26 26 26 25 25 23 22 20 18 16 16
41 41 40 40 39 39 37 37 30 29 29 33 34 34 33 27 28 27 22 20 16 21 25 28 28 29 32 32 27 27 24 25 24 26 24 20 29 30 26 27 28 28 27 26 26 26 25 24 22 20 18 16 16 16
41 40 40 40 39 38 35 33 33 36 36 33 31 29 30 23 22 17 15 15 22 26 31 31 29 31 31 30 29 27 25 25 27 24 20 27 29 28 28 28 28 28 28 27 26 25 24 23 22 19 19 18 17 16
39 39 40 39 38 35 34 36 36 31 32 28 23 18 23 20 19 27 27 27 29 29 31 32 31 29 31 28 28 24 26 24 22 20 19 30 28 28 29 28 28 27 28 28 26 23 21 19 19 18 18 18 16 15
40 39 38 36 33 34 34 30 29 33 29 25 23 20 21 26 28 29 31 29 30 33 32 30 30 28 29 27 29 24 22 18 19 18 31 32 28 28 27 27 28 27 25 24 23 21 19 18 17 17 17 17 16 15
39 39 37 36 36 38 35 30 32 27 25 25 25 22 25 24 27 30 31 30 32 33 32 30 26 24 26 26 23 21 18 16 23 33 33 31 29 28 28 28 27 25 25 25 24 21 19 18 17 17 17 17 16 14
37 37 38 38 36 33 30 32 25 20 23 23 25 31 31 29 29 30 32 31 34 33 29 26 22 22 25 21 20 21 23 30 31 32 32 30 30 29 28 27 25 24 24 24 22 20 18 18 18 17 16 17 15 15
36 36 35 35 31 29 28 25 19 20 22 30 25 28 30 32 30 31 32 34 33 31 29 29 30 22 22 18 20 28 33 33 33 33 31 30 30 29 28 26 24 23 23 23 21 19 18 18 17 16 17 18 16 16
35 33 34 33 31 26 23 23 20 20 24 26 27 28 30 30 30 31 32 32 33 34 31 28 26 23 24 31 32 33 33 33 32 31 28 28 29 27 26 26 23 23 22 21 20 19 18 18 18 17 17 17 15 15
35 34 34 34 33 21 19 21 22 17 19 23 24 23 25 28 29 30 31 27 28 29 26 25 28 29 29 29 30 30 32 33 32 30 28 27 27 26 25 24 22 23 22 21 20 20 19 18 18 18 17 17 16 16
34 35 35 32 27 24 21 19 19 18 19 20 20 20 22 23 25 28 26 24 26 22 24 30 29 29 30 30 30 30 31 31 32 32 32 28 27 25 25 24 24 23 21 20 20 20 19 19 18 18 19 19 18 19
35 36 33 29 25 24 23 24 18 19 19 20 20 18 23 24 24 25 22 24 22 28 27 26 26 26 25 27 27 28 28 27 28 26 26 29 27 26 26 25 24 24 23 23 22 21 21 20 19 19 20 21 20 20
33 32 28 25 25 23 23 25 20 17 19 18 19 18 20 21 23 24 20 21 26 26 25 24 23 24 25 26 26 27 27 26 27 27 28 28 28 28 27 27 26 25 23 23 23 23 23 21 20 21 20 21 21 20
28 28 26 25 22 21 24 22 18 17 18 16 15 17 16 21 23 20 17 24 24 23 22 21 21 21 22 24 25 27 27 25 25 27 27 27 26 26 26 26 26 25 25 25 24 23 23 24 21 21 21 21 21 22
17 21 25 21 23 21 19 18 19 16 17 18 16 15 21 21 20 18 20 23 23 22 20 20 19 20 20 22 24 26 26 24 24 25 28 25 25 25 24 23 24 24 25 25 26 25 24 25 23 22 21 21 22 22
15 23 20 19 20 17 16 15 16 16 14 16 16 22 22 21 18 19 20 22 21 18 18 19 19 18 18 19 20 23 23 23 23 25 28 22 23 25 26 26 24 24 23 25 25 26 24 25 25 23 22 21 21 22
15 18 18 20 19 16 19 21 19 20 18 17 19 20 19 16 18 17 17 16 17 17 17 18 20 18 18 19 21 21 23 23 24 24 23 22 21 22 23 25 25 26 27 24 24 24 25 24 24 23 23 22 22 22
19 21 18 21 21 21 21 22 22 19 20 24 23 20 20 17 15 15 14 15 17 16 19 20 20 18 21 22 22 23 24 25 26 25 24 23 22 23 23 24 24 20 23 25 24 23 25 25 25 24 23 22 22 23
19 23 22 21 23 22 22 22 24 23 23 25 24 21 15 12 13 13 14 16 18 18 17 17 18 20 19 25 23 24 24 22 21 22 23 23 23 22 24 22 24 23 23 24 22 23 25 24 25 26 24 22 22 22
21 22 22 21 19 18 24 23 23 22 21 21 17 13 11 10 11 14 13 13 13 13 15 17 16 16 16 17 19 19 19 19 18 17 18 18 20 23 23 23 24 25 25 25 25 22 21 22 22 22 22 23 22 22
22 22 21 20 20 23 23 22 22 21 22 19 21 18 11 9 10 10 10 13 14 12 12 12 13 12 12 13 13 13 14 16 16 16 16 19 21 20 21 21 21 22 23 23 24 25 23 21 22 21 20 21 21 20
22 22 22 19 21 21 21 20 22 20 19 18 15 14 12 13 8 8 8 9 9 8 9 9 9 10 12 14 15 16 17 15 14 14 13 14 15 17 19 19 20 20 21 21 21 21 20 21 21 19 18 16 17 15
19 20 20 20 19 18 19 19 18 18 19 16 13 13 10 10 4 7 8 9 9 8 7 8 10 12 13 15 13 15 17 18 15 12 12 12 12 13 17 19 19 19 18 18 17 17 17 16 15 14 14 14 12 10

GFSWCAN_sfc_30mbdewp_141.txt.gz
Dewpoint
39 41 40 41 44 43 42 42 41 41 41 41 41 42 41 42 43 42 39 44 42 36 35 33 33 30 30 31 29 29 26 27 28 22 22 22 20 17 22 25 24 25 22 21 21 21 20 27 27 23 26 28 27 26
39 41 41 41 44 43 42 42 41 41 41 41 41 41 42 42 43 42 38 47 48 38 37 37 36 36 36 31 31 31 25 26 29 27 25 26 23 25 26 22 26 22 25 25 27 25 29 30 30 29 27 26 25 25
39 41 40 40 44 42 42 41 41 41 40 41 39 41 41 41 40 41 41 44 39 36 35 35 34 32 36 34 31 26 28 29 33 35 31 28 25 28 24 23 27 27 29 26 26 26 26 27 27 27 27 26 25 24
40 41 40 40 43 42 41 41 41 40 41 42 41 40 39 39 39 42 43 42 41 34 32 32 33 31 36 35 35 35 33 34 34 34 29 29 24 29 27 27 26 27 28 27 26 27 26 26 26 26 24 24 22 21
40 40 40 41 42 41 41 41 40 42 42 41 40 40 39 36 37 40 42 42 40 34 31 30 31 33 33 34 34 34 32 30 30 28 29 24 27 25 28 30 25 27 27 24 24 26 25 27 26 26 24 23 22 21
40 41 40 43 42 42 41 41 41 42 41 42 39 37 36 36 37 38 34 39 37 37 30 29 34 31 31 32 32 31 31 29 29 32 29 30 30 29 21 25 31 32 32 31 31 30 28 28 27 26 25 24 22 21
41 39 40 42 42 41 40 41 42 41 41 39 35 34 36 34 37 36 35 37 39 40 29 27 29 32 32 31 31 30 30 30 28 27 27 24 24 28 24 25 28 31 32 32 30 29 27 27 26 26 24 23 21 20
40 41 43 42 41 41 41 41 42 40 38 35 39 37 37 37 37 32 35 38 40 36 32 28 28 28 32 28 28 32 28 29 28 27 26 26 22 27 24 27 27 30 31 30 29 29 29 28 27 26 23 21 20 19
40 43 42 41 40 39 39 39 40 39 40 36 34 36 37 36 31 31 37 39 40 34 29 27 26 24 33 30 30 28 30 25 30 28 26 27 25 23 27 26 27 29 28 28 29 29 28 26 25 24 22 22 20 19
42 42 41 41 40 39 40 39 40 38 35 32 36 31 25 33 36 37 33 21 29 29 33 28 29 29 30 30 29 28 29 26 23 26 28 26 28 30 28 27 28 28 28 28 27 26 26 25 24 23 22 21 19 19
42 41 41 40 40 40 39 39 36 33 33 35 32 31 33 34 34 32 23 22 25 24 31 30 29 28 31 27 28 29 25 25 22 24 23 23 23 28 27 27 28 29 29 28 27 27 26 25 24 23 22 21 18 17
41 41 41 40 40 40 39 37 33 33 34 35 34 35 35 31 30 24 22 21 23 23 28 29 31 33 32 32 27 27 24 25 25 27 22 21 28 29 27 27 28 28 28 28 28 27 26 26 25 22 18 18 17 16
41 40 40 40 39 37 34 32 35 36 36 35 33 26 27 24 21 17 14 21 23 28 32 30 28 31 31 31 29 25 24 24 26 23 20 26 30 28 28 28 28 28 27 27 27 27 26 24 22 19 17 16 15 13
40 40 40 38 36 34 34 36 35 31 35 26 23 17 21 20 25 27 28 28 30 29 32 31 30 29 30 27 27 22 27 26 21 19 20 28 29 28 29 28 28 27 26 26 23 21 20 19 17 16 16 15 14 12
40 39 37 36 36 35 34 31 30 35 29 25 25 22 22 27 28 29 31 30 32 33 30 30 30 30 29 25 28 24 22 19 19 20 31 29 29 29 28 28 28 26 25 23 20 18 17 17 16 16 15 14 13 12
38 36 34 35 32 30 30 31 34 29 27 26 27 23 26 25 27 28 29 28 33 33 31 29 26 24 25 26 24 21 19 18 27 31 31 29 28 28 28 28 26 25 24 22 19 18 17 16 16 15 16 14 13 11
37 34 35 35 34 33 32 33 26 24 25 25 26 31 30 28 28 30 29 30 34 32 28 27 22 21 26 22 22 24 26 30 32 31 30 29 28 27 26 25 24 24 24 22 20 19 17 17 16 16 15 15 14 12
35 37 36 36 34 32 31 29 22 25 26 28 25 28 29 31 30 31 33 33 33 32 30 28 31 23 21 19 24 31 32 31 32 30 29 30 29 27 25 24 23 24 23 22 20 19 17 17 16 15 15 15 15 14
35 35 34 32 33 32 24 25 25 24 25 27 27 28 29 29 30 32 32 32 32 33 31 28 25 25 27 27 28 30 31 33 30 29 27 28 28 27 25 23 23 23 22 21 20 19 18 17 17 17 17 17 15 16
34 35 34 33 33 23 21 22 26 23 23 24 26 27 28 28 28 29 29 28 29 29 27 27 27 26 27 28 29 30 31 32 30 28 27 27 26 26 26 24 23 23 22 21 20 19 19 18 19 19 18 18 16 16
33 35 36 32 27 27 25 22 20 21 23 22 23 24 24 28 28 27 26 25 25 25 27 28 27 28 31 30 29 28 30 28 28 29 30 27 27 25 26 24 24 23 22 21 20 20 20 19 19 19 18 17 18 16
34 35 31 29 26 26 25 26 21 21 22 21 21 24 24 24 24 25 25 24 26 26 26 26 25 24 24 26 26 26 27 27 27 28 28 28 26 25 25 24 24 23 23 22 21 20 20 20 20 19 18 19 18 17
34 31 27 27 24 22 22 27 19 20 19 20 20 20 20 21 24 24 20 25 25 26 24 23 23 24 24 25 27 27 27 26 26 29 27 28 28 27 27 26 26 25 24 24 24 23 23 22 20 20 19 20 19 18
30 26 25 25 22 19 23 22 20 21 20 18 17 16 20 23 22 19 18 24 24 23 21 21 21 21 23 25 27 27 25 26 26 28 29 27 28 29 27 28 27 27 26 25 25 25 24 24 22 20 21 19 20 20
18 16 24 20 23 21 19 18 19 18 17 18 16 15 22 21 19 18 20 22 21 20 20 20 20 20 22 23 24 26 24 23 23 25 28 27 25 28 27 26 26 26 26 25 25 27 26 26 24 21 21 21 21 21
16 20 21 19 20 18 18 16 17 16 15 16 16 23 21 19 18 17 18 18 17 18 18 19 19 19 19 19 20 21 22 22 24 24 24 23 24 25 26 26 25 24 25 24 25 27 27 26 25 23 23 22 22 22
16 18 19 21 21 18 19 20 19 18 16 16 20 19 18 16 16 15 16 16 17 17 18 19 22 19 18 21 21 22 24 25 24 24 26 25 24 25 25 23 22 22 25 25 24 24 24 26 24 24 23 23 22 21
19 20 17 20 20 22 20 21 20 19 20 23 23 19 18 15 12 14 14 16 18 19 21 22 19 20 22 22 24 23 22 21 22 26 26 24 23 23 23 23 21 21 21 22 22 23 24 25 25 25 24 23 22 23
19 22 20 20 21 21 21 22 23 23 23 24 21 17 12 12 13 14 15 17 19 18 17 16 16 19 19 22 19 18 17 16 16 17 19 19 20 20 24 24 25 25 24 24 23 21 22 24 23 24 26 24 22 23
22 21 21 21 18 19 22 24 23 22 22 19 15 12 11 11 12 14 14 15 13 13 16 15 15 14 14 14 16 15 16 15 14 13 13 14 17 20 20 21 21 22 23 24 24 23 21 21 22 21 22 23 22 22
22 21 19 20 20 24 23 22 22 23 23 20 18 13 9 8 10 10 10 12 13 10 10 11 12 12 12 12 12 12 12 14 14 13 13 15 16 16 19 19 20 21 22 23 22 22 22 20 21 20 20 18 16 14
24 22 22 20 20 22 21 21 21 20 19 17 15 13 11 11 6 7 9 9 8 7 8 9 8 9 13 14 14 16 15 13 13 12 12 11 12 14 17 19 21 20 19 18 18 18 17 16 15 14 11 10 10 9
20 21 22 20 20 19 20 19 20 19 18 14 13 13 9 7 3 7 9 10 10 7 7 8 10 12 14 13 12 13 16 15 15 14 13 11 12 12 12 13 16 15 14 13 14 14 13 12 10 9 8 6 5 4

GFSWCAN_sfc_30mbdewp_144.txt.gz
Dewpoint
41 41 42 42 42 43 43 42 42 42 42 42 41 41 42 43 43 42 39 42 42 36 38 39 37 33 32 30 26 29 28 28 28 25 18 20 19 19 21 24 24 23 22 21 23 22 20 28 27 22 24 28 26 26
40 41 41 41 43 42 43 42 42 41 42 41 41 42 41 42 43 43 37 43 46 40 38 39 38 37 35 33 31 30 28 27 26 22 25 23 24 26 25 21 28 22 23 24 25 23 28 30 29 29 28 26 26 25
41 41 40 41 41 44 42 42 42 41 40 40 41 41 42 42 42 43 40 42 42 38 37 36 35 36 37 33 32 27 29 28 33 34 30 29 28 30 23 24 27 29 29 25 25 26 27 28 27 27 27 25 25 25
41 41 41 40 41 43 42 42 42 41 39 40 41 41 42 41 42 44 43 45 43 37 32 34 37 34 37 34 32 32 31 35 35 35 30 29 30 32 27 27 27 28 28 27 26 26 26 26 26 26 25 23 21 22
40 41 39 39 42 43 42 41 41 40 40 41 40 40 40 38 43 44 45 42 40 34 32 33 34 34 35 35 33 32 32 31 30 28 27 24 29 28 30 27 26 29 26 24 24 27 25 26 25 24 22 21 20 19
41 41 39 39 43 42 41 41 40 40 41 41 39 38 36 37 42 40 36 38 38 39 31 30 33 32 32 32 31 30 31 30 32 29 29 30 30 28 23 26 31 32 31 29 26 28 27 27 26 25 23 23 21 19
41 40 39 40 42 41 41 40 41 41 41 39 39 37 38 36 37 36 35 37 39 38 30 27 27 30 33 32 31 30 31 31 28 29 26 24 24 27 26 26 30 31 31 30 29 28 26 26 25 26 24 23 22 20
41 41 40 42 41 41 41 41 41 41 39 39 38 38 38 38 37 34 33 37 41 34 31 27 27 27 32 28 27 32 29 29 29 27 28 22 23 27 23 29 31 30 29 28 28 28 27 27 25 23 21 20 19 18
39 39 42 41 41 41 42 42 40 38 39 38 35 36 37 36 34 34 36 39 41 32 26 26 24 24 32 30 29 28 29 23 29 27 26 26 24 17 26 29 30 29 28 28 29 27 27 26 24 22 21 20 19 18
39 42 41 41 39 41 41 40 39 39 34 36 32 26 20 31 38 36 29 21 28 31 34 28 30 29 29 29 28 26 28 25 22 26 27 25 25 30 29 30 31 29 29 29 27 26 26 26 25 23 21 21 20 19
42 41 40 39 38 37 37 39 36 33 34 31 29 28 33 36 28 29 21 19 25 29 31 30 29 28 32 25 27 27 24 25 20 24 21 21 22 28 29 30 30 29 29 29 28 28 27 26 25 23 23 21 20 19
41 41 40 39 40 39 37 34 33 34 34 33 31 35 32 30 28 19 21 22 24 23 30 29 31 32 32 30 25 26 23 24 23 26 22 20 24 29 28 29 29 29 29 28 28 27 26 25 24 23 22 21 20 18
41 40 40 40 40 38 36 33 36 37 36 34 28 24 20 22 19 13 13 23 23 29 31 30 28 30 29 29 27 23 21 22 26 20 20 21 29 28 28 29 29 29 28 27 27 27 26 25 24 22 20 18 16 14
40 40 40 39 37 35 36 34 31 33 34 25 20 19 19 22 24 26 27 27 30 31 29 30 29 28 29 25 26 21 27 25 21 18 17 26 28 28 28 28 28 27 27 27 26 26 25 24 21 18 17 15 13 12
39 38 37 35 35 35 34 30 34 34 27 23 24 20 21 27 29 30 30 30 32 33 29 29 29 29 27 25 26 23 22 20 19 19 28 29 28 28 27 27 26 25 23 23 22 22 21 19 17 15 14 13 13 11
38 36 36 34 34 31 31 34 34 29 27 27 27 23 25 25 26 27 27 28 32 33 29 27 26 23 24 25 22 19 18 17 23 30 29 28 28 27 27 27 25 23 22 20 19 19 17 16 16 15 13 12 11 10
33 33 36 33 32 32 32 33 25 26 25 25 26 30 27 28 28 29 29 30 33 29 26 27 21 22 26 22 22 25 24 29 30 29 29 28 28 27 26 25 24 23 21 19 17 17 16 15 15 15 14 13 11 10
32 36 35 34 33 34 31 27 25 27 25 27 25 27 29 30 29 30 31 33 32 31 29 26 30 23 22 21 24 29 29 28 29 28 29 28 26 25 25 25 23 23 21 19 18 16 15 15 15 15 14 13 12 11
35 34 32 30 30 30 23 24 26 24 24 26 26 28 28 28 29 31 31 31 32 33 30 27 25 25 23 25 26 28 30 30 28 27 27 28 27 25 23 22 22 22 21 20 19 18 17 16 16 15 15 14 14 13
34 35 36 35 34 24 21 22 27 24 23 24 26 26 26 25 27 28 27 26 28 28 27 27 24 25 26 27 28 28 28 29 28 27 26 27 27 26 24 23 23 22 21 19 19 18 17 17 17 17 17 16 15 14
31 34 33 31 28 27 25 23 20 22 23 21 25 25 25 27 25 26 25 26 26 26 25 26 25 25 29 28 27 27 27 27 26 27 28 26 27 26 26 25 24 23 22 20 20 19 18 17 17 19 18 17 17 16
33 33 27 28 25 25 24 26 21 23 22 21 22 24 22 22 22 23 24 24 25 25 26 24 23 23 24 24 25 26 27 26 26 28 28 27 26 25 25 25 24 23 23 21 20 19 19 19 19 19 18 17 17 17
31 28 26 25 19 19 21 26 18 21 18 20 20 19 18 22 24 23 21 24 24 24 23 21 22 23 23 26 28 27 26 26 26 28 29 28 28 26 26 25 25 24 24 24 23 22 21 21 21 20 19 17 17 17
29 26 24 23 19 17 21 19 21 21 19 18 17 16 22 22 22 18 20 21 22 22 20 20 21 21 24 25 24 22 23 23 23 25 27 28 28 28 29 27 27 26 26 26 26 25 25 24 23 21 20 18 18 18
12 15 19 18 21 19 18 17 17 17 15 17 15 18 20 20 16 17 18 18 17 17 17 17 19 21 19 19 20 21 22 22 21 23 25 25 26 27 27 28 28 27 27 26 25 26 27 26 25 22 21 20 19 19
8 16 19 18 19 18 17 15 16 15 15 15 16 22 20 17 17 16 15 15 15 16 16 17 18 18 18 20 20 19 21 24 23 22 23 25 24 23 23 24 24 24 24 25 24 26 26 25 25 23 22 22 21 21
16 15 19 23 22 20 18 19 19 16 14 15 20 18 17 14 14 12 14 15 15 16 18 20 19 18 18 19 21 22 21 20 22 23 25 25 24 24 23 20 20 20 23 24 24 24 23 23 23 23 23 22 22 22
19 20 16 19 20 21 19 19 18 18 18 23 19 17 17 14 11 11 13 16 17 19 20 19 19 19 19 19 17 16 15 16 20 23 23 22 21 22 23 24 23 23 21 21 20 21 23 23 24 23 23 23 22 22
19 20 20 18 19 19 20 21 21 22 22 23 19 14 9 9 11 12 14 16 17 16 14 13 14 16 16 17 15 14 14 13 15 17 14 14 14 16 18 18 19 20 21 23 23 21 21 22 22 23 24 24 24 23
21 21 19 20 17 18 20 24 21 21 19 15 13 11 9 9 9 11 10 12 10 10 12 12 12 12 11 12 12 12 13 12 11 11 10 10 12 15 17 17 18 19 20 21 21 21 21 20 21 21 22 21 20 17
22 20 18 18 18 21 22 22 22 23 21 15 12 7 5 6 8 8 8 9 9 8 7 7 8 10 10 10 10 10 9 11 11 11 11 11 12 13 15 16 18 18 18 18 18 19 20 19 18 15 13 11 11 9
23 21 21 19 17 21 22 20 19 18 16 14 11 9 7 6 2 4 8 7 5 5 6 6 6 7 10 11 12 13 13 12 12 12 11 10 11 11 12 14 14 14 14 14 14 14 13 11 10 8 6 5 5 4
21 21 21 20 17 17 19 19 19 16 13 10 10 9 5 3 -0 5 8 8 7 6 6 6 8 9 11 11 11 12 14 14 15 15 13 11 10 10 11 12 13 13 11 9 8 8 7 6 5 4 2 1 -1 -2

GFSWCAN_sfc_30mbdewp_147.txt.gz
Dewpoint
41 41 41 42 42 44 44 44 43 42 42 42 42 42 42 43 44 43 39 43 41 37 35 39 35 33 32 30 28 30 28 30 30 28 25 23 20 24 23 25 21 24 23 24 25 21 18 28 26 21 23 27 27 26
41 41 41 41 42 43 43 43 43 42 42 42 42 41 42 43 43 44 38 42 44 40 38 40 39 38 35 33 31 31 29 29 32 28 26 25 23 25 23 22 27 23 24 22 24 22 28 30 28 28 27 26 26 25
41 42 42 41 42 43 43 43 42 42 42 41 42 41 42 43 44 43 40 41 43 39 37 37 38 39 39 37 34 31 33 32 31 31 29 30 29 29 23 24 27 28 29 24 25 27 28 28 28 28 27 26 26 25
41 42 41 41 43 42 42 42 42 42 41 40 40 42 42 42 42 43 40 42 42 38 32 35 39 37 37 37 36 34 35 37 38 36 31 30 28 33 28 27 27 28 27 26 26 27 26 26 27 26 25 25 26 25
41 41 41 41 43 42 42 42 42 41 40 40 41 42 42 40 42 44 44 44 42 36 31 33 37 37 37 35 33 33 32 32 30 28 27 26 33 33 31 28 27 29 27 24 22 26 26 26 26 24 23 23 23 21
41 41 40 41 41 43 42 42 41 40 41 41 41 41 41 41 42 42 37 41 39 38 33 29 36 36 34 33 32 32 32 32 32 29 29 30 33 32 30 26 30 32 30 28 25 28 27 27 25 23 21 21 21 20
40 40 40 43 43 42 42 41 40 41 41 40 39 39 39 41 42 38 35 38 40 38 30 28 31 34 33 31 32 30 32 31 29 29 26 25 25 28 28 25 30 31 31 29 29 27 25 24 23 24 22 22 21 19
40 39 40 42 42 42 41 40 40 41 40 38 38 39 41 42 41 36 35 38 40 33 31 26 27 28 31 29 27 32 28 28 30 27 27 22 25 26 21 29 31 30 29 28 28 27 26 26 25 23 23 20 18 18
41 40 42 42 41 40 40 41 41 40 40 38 38 38 39 38 36 36 39 39 41 30 25 26 24 24 31 30 29 28 27 23 28 26 25 25 23 20 23 30 29 28 27 27 27 27 26 25 23 21 21 19 18 18
39 39 42 41 40 40 41 41 39 39 38 36 34 27 30 33 40 37 27 22 28 33 32 28 30 28 29 28 27 25 27 24 22 26 26 25 22 28 30 31 30 29 29 28 26 25 24 23 22 21 20 20 19 18
40 42 41 40 41 41 40 39 37 33 34 30 26 28 35 38 32 28 20 19 26 28 30 30 29 28 31 23 25 26 23 25 21 24 21 20 21 27 30 31 30 30 29 28 27 27 26 24 22 21 21 20 19 18
42 40 40 39 39 40 38 34 34 34 33 33 31 35 34 30 23 15 19 23 24 26 30 28 30 31 31 28 25 26 22 24 21 25 22 19 22 28 29 30 29 29 29 28 28 27 27 26 24 23 22 21 20 19
41 40 39 40 39 37 35 36 36 36 36 32 26 22 21 22 16 10 14 22 24 29 30 30 27 29 28 28 25 23 19 21 24 20 18 20 27 29 29 29 29 29 28 28 27 27 26 25 25 24 22 21 20 18
40 40 40 38 36 35 34 33 33 34 31 24 20 19 20 21 22 23 25 27 30 30 29 29 28 27 27 24 24 21 26 24 19 17 16 20 28 28 29 29 28 28 27 27 26 26 25 24 23 21 21 18 17 16
40 39 38 36 36 36 33 34 34 32 27 22 23 19 21 27 29 29 29 30 32 31 29 28 28 27 25 25 25 23 23 20 19 18 24 28 28 28 28 28 28 27 26 26 25 25 24 22 21 19 16 16 16 13
37 35 35 35 34 34 33 34 30 29 28 27 26 22 26 25 25 26 28 30 32 31 27 26 25 21 24 24 20 18 19 17 20 28 29 27 27 27 27 27 26 25 25 24 23 23 22 21 20 18 12 13 12 12
34 34 35 34 33 32 34 29 29 28 26 25 26 28 26 27 26 27 30 31 33 28 25 25 19 22 26 22 22 24 23 27 28 28 28 27 27 26 26 25 23 22 22 21 20 20 18 15 15 15 15 12 11 10
34 36 33 32 33 33 30 27 27 25 24 26 25 26 28 29 28 29 31 32 31 30 27 26 29 23 22 22 24 27 27 27 28 28 28 26 25 25 25 24 22 22 20 18 18 16 15 15 16 15 14 12 11 11
34 34 34 33 31 27 22 24 26 24 26 27 27 27 27 28 29 29 30 30 32 32 29 28 23 23 22 24 25 27 28 28 27 27 27 28 25 23 23 22 22 21 20 18 17 17 16 15 16 15 14 14 13 12
33 33 35 34 32 23 21 22 27 24 23 25 26 25 25 27 28 28 26 27 28 28 26 24 22 23 25 25 26 26 27 28 28 27 27 27 27 24 23 23 22 21 20 19 18 18 17 17 17 16 16 15 14 13
30 30 32 30 28 27 25 22 21 23 23 21 25 25 23 24 23 24 24 27 24 25 23 24 23 24 27 26 26 27 26 26 26 26 27 26 27 27 25 25 24 23 22 20 20 19 18 18 17 18 17 16 15 14
30 32 27 27 23 24 24 26 22 24 21 22 23 24 22 20 22 22 25 23 23 23 24 23 23 23 23 25 26 26 25 26 28 28 26 27 26 26 25 25 24 23 22 21 21 20 19 19 19 18 17 17 16 16
29 27 25 21 17 19 20 25 19 21 17 19 21 18 19 22 22 23 22 23 22 23 21 21 21 24 26 27 24 22 22 22 23 25 27 28 29 26 25 25 25 24 24 24 23 22 21 21 20 19 18 17 16 16
27 25 22 20 18 18 19 19 22 20 18 17 16 17 22 21 20 18 19 18 20 21 19 19 21 21 22 21 20 20 21 21 21 22 24 25 26 27 28 26 26 26 26 26 26 25 24 24 24 22 20 18 17 16
10 15 16 16 20 17 16 16 16 16 15 16 15 19 20 19 15 16 16 13 14 15 15 16 19 19 18 18 19 18 21 22 21 20 23 24 24 24 25 25 24 23 26 27 26 26 26 26 25 23 22 20 20 18
4 16 17 17 19 17 17 14 15 14 15 14 17 21 18 16 15 15 12 12 13 14 14 15 17 16 16 18 18 18 19 21 22 21 22 23 23 22 21 20 21 21 22 22 24 24 24 23 23 23 22 21 21 20
11 12 19 22 22 20 17 18 18 14 14 14 19 18 17 13 13 11 13 14 14 15 17 19 18 17 17 18 17 16 16 16 17 20 23 22 21 21 20 18 18 20 21 21 21 22 22 21 21 21 21 22 21 21
19 19 15 17 19 19 18 17 17 16 17 21 17 16 15 13 10 10 12 15 16 18 17 17 17 17 15 15 14 14 13 14 19 21 18 17 17 17 17 18 18 19 19 20 20 20 20 20 21 22 21 21 22 21
18 19 19 17 18 18 19 19 20 20 21 21 17 12 7 7 8 9 11 13 15 14 12 11 11 13 14 14 13 12 12 12 17 13 13 12 13 13 16 16 17 17 18 19 20 21 20 21 21 21 21 21 21 19
20 21 18 17 17 16 20 22 20 20 14 13 11 9 8 6 7 9 10 9 8 8 9 10 9 9 9 10 10 9 11 10 9 9 9 9 10 12 13 15 16 16 16 17 17 17 20 20 20 18 17 15 13 11
22 19 17 16 18 18 21 23 23 20 16 10 7 4 3 4 6 7 7 7 7 6 5 5 6 7 7 8 8 8 8 10 10 10 10 9 10 11 12 12 13 13 12 12 13 13 14 12 11 9 8 6 6 5
21 21 19 18 17 20 22 20 19 17 13 10 7 6 5 3 0 3 6 4 3 3 4 4 4 5 8 10 10 12 12 12 12 11 11 10 10 10 11 11 11 10 9 9 8 8 7 6 5 4 3 2 1 -0
19 20 20 19 16 16 18 18 17 11 9 8 7 5 3 1 -2 3 7 7 6 6 5 6 6 7 9 10 10 11 12 13 13 13 11 10 9 9 9 9 9 7 6 5 5 5 4 3 1 0 -1 -2 -4 -5

GFSWCAN_sfc_30mbdewp_153.txt.gz
Dewpoint
38 41 45 44 44 44 44 43 43 44 44 44 44 44 44 44 44 42 39 42 36 33 33 35 36 33 32 36 31 32 33 32 33 29 29 28 25 27 27 27 27 26 26 25 26 22 18 29 26 23 27 29 28 26
39 42 44 43 44 44 43 44 44 44 44 44 43 43 44 44 43 42 37 43 41 37 36 40 39 38 37 37 37 36 32 30 32 30 29 28 25 28 28 24 29 26 27 24 24 23 29 29 28 28 29 28 27 25
41 43 42 44 43 43 44 44 44 44 44 43 43 43 43 43 43 41 38 42 41 36 35 35 33 35 39 40 40 36 36 34 34 34 30 31 27 28 25 25 27 28 29 26 25 26 28 29 28 28 28 28 27 26
43 43 44 43 43 43 43 44 44 44 44 43 43 43 43 43 42 42 40 42 39 36 30 31 39 38 41 42 42 41 39 40 39 37 35 33 30 32 27 25 27 28 28 26 26 27 27 28 28 27 27 27 26 25
42 42 43 43 43 42 43 44 43 43 43 43 43 43 42 42 42 43 43 42 41 36 31 33 39 40 40 40 40 41 40 39 37 34 32 31 32 33 32 29 27 29 27 25 24 26 27 28 29 28 27 25 25 24
41 42 42 42 42 42 43 43 43 42 42 42 42 42 41 41 43 40 34 41 43 41 34 30 38 38 39 42 41 41 41 39 36 33 32 34 33 33 30 27 28 30 30 29 26 29 28 29 28 27 26 25 25 24
41 41 41 42 43 43 42 41 40 40 41 41 41 40 41 42 41 36 34 40 43 43 33 30 31 37 37 38 36 34 36 34 34 32 32 29 32 35 31 28 30 31 31 30 28 27 26 26 25 26 25 25 25 23
42 43 43 43 42 41 40 40 40 41 40 39 40 40 42 42 40 36 39 42 44 38 36 29 29 32 35 33 32 32 30 31 30 28 27 26 30 32 29 29 31 30 29 28 27 27 27 26 25 24 24 22 22 22
42 42 42 42 42 42 42 41 40 40 41 41 42 42 43 39 35 38 42 43 43 38 31 29 28 27 32 31 29 28 28 26 29 27 26 25 25 24 26 25 30 29 27 27 26 25 24 24 23 23 22 21 21 20
42 42 42 42 42 42 41 40 41 41 40 39 38 33 31 36 42 41 37 35 35 36 32 28 31 29 31 28 25 25 27 24 23 26 27 25 23 25 25 29 30 29 28 26 25 24 24 23 22 22 22 21 20 19
43 43 43 42 41 40 40 41 40 39 39 35 32 31 37 42 36 30 26 28 30 29 30 31 31 29 30 23 23 26 23 24 19 23 23 21 21 24 29 30 30 29 28 27 26 26 25 24 22 21 20 20 20 19
42 41 41 41 41 40 40 40 40 38 35 32 36 36 34 30 25 19 21 25 28 26 29 30 29 29 29 29 24 25 22 23 16 25 23 20 21 25 29 30 29 29 28 27 27 26 25 24 23 22 21 20 19 19
41 41 41 39 37 37 38 39 39 39 39 34 32 30 28 25 16 12 18 23 27 30 31 30 26 27 27 26 24 22 19 20 24 21 19 20 25 28 29 29 29 28 28 27 27 26 25 24 23 22 22 21 20 18
40 39 37 37 36 37 37 38 35 35 30 25 24 22 22 19 23 24 26 27 30 30 28 27 26 25 26 23 22 20 25 23 20 18 17 24 28 27 28 29 29 28 27 27 26 25 24 23 22 22 22 20 19 18
39 37 36 35 35 35 34 34 32 32 27 23 22 19 21 26 28 28 29 30 31 30 28 26 25 25 24 24 24 24 22 19 20 20 24 27 28 27 28 29 28 27 26 25 25 24 23 22 22 21 20 20 20 17
36 35 35 34 33 34 33 31 31 30 29 26 25 23 25 24 26 28 29 31 32 30 27 25 21 21 23 22 18 19 18 17 22 26 27 26 26 26 27 28 27 26 26 25 25 25 23 23 22 22 18 18 18 17
35 33 35 34 35 34 32 29 28 27 26 25 25 28 27 26 26 28 30 31 32 28 24 24 21 23 25 22 22 25 23 25 26 26 27 26 25 25 25 26 26 26 25 24 23 23 22 20 19 19 20 18 16 16
31 32 36 33 30 29 29 28 26 25 24 26 24 26 28 28 28 29 30 31 30 28 27 27 26 23 21 20 21 25 26 27 27 26 26 25 24 24 25 24 23 23 22 21 22 20 19 19 21 21 19 17 15 14
35 35 35 34 29 24 23 25 26 24 26 28 28 26 27 29 30 29 29 30 30 29 27 23 20 19 19 22 22 24 25 26 26 26 26 26 24 23 22 21 20 19 18 18 19 20 19 19 20 19 17 16 17 15
31 32 33 32 27 21 20 21 26 24 22 25 27 27 28 28 28 26 27 29 28 24 21 19 19 20 21 23 24 24 25 26 28 27 26 27 26 24 23 23 22 20 20 19 18 17 17 17 17 17 16 16 17 16
26 29 29 28 26 25 23 22 22 23 23 23 25 23 24 23 23 24 23 25 22 21 19 21 21 24 25 24 24 25 24 26 25 26 25 26 27 26 24 23 22 22 22 21 21 20 20 21 20 19 19 18 18 17
27 29 22 23 22 24 23 24 22 23 22 23 23 23 22 21 20 22 23 19 19 19 20 21 22 23 22 21 21 22 22 22 24 24 25 26 26 26 26 25 24 23 22 21 21 21 21 20 20 19 19 18 16 17
26 25 22 20 17 18 19 23 19 21 17 20 20 17 20 19 21 22 19 19 18 20 20 20 22 24 21 20 19 20 21 20 20 22 23 23 25 26 26 26 25 25 24 25 24 23 23 22 21 20 19 18 18 17
23 19 17 18 18 17 17 18 21 18 17 17 16 19 20 19 18 16 15 14 16 16 16 17 19 20 18 17 17 18 19 20 20 20 22 22 22 22 23 22 22 22 23 25 26 26 25 25 24 23 21 20 19 18
14 15 12 14 17 15 15 14 14 15 15 15 16 18 19 17 14 14 12 11 12 13 13 14 17 17 16 16 16 17 18 17 17 18 20 21 20 21 21 21 20 20 21 21 21 22 22 24 24 24 23 22 21 20
8 15 16 16 18 16 15 13 13 13 14 14 17 18 15 14 11 10 10 10 11 13 13 13 14 14 14 15 15 14 15 15 16 18 18 18 18 17 17 16 17 17 19 19 20 20 20 20 20 19 20 20 20 20
3 15 18 21 22 18 17 17 16 14 14 14 17 17 15 8 9 8 11 12 12 14 16 15 15 15 14 13 13 13 13 14 14 17 18 17 16 16 15 14 14 15 17 17 18 17 17 18 19 19 18 19 20 20
20 19 16 16 17 16 16 15 16 15 15 18 15 16 14 10 8 7 9 11 13 16 14 14 14 13 12 12 11 11 11 14 16 17 17 16 15 14 13 14 14 15 15 15 16 18 18 18 19 19 19 19 16 16
19 19 17 15 15 16 17 17 17 18 18 18 16 11 6 4 4 5 7 9 11 10 8 9 9 10 11 10 9 10 10 11 14 13 11 10 10 11 11 11 12 12 12 12 12 14 17 19 18 16 13 12 10 9
18 20 17 15 16 14 17 19 18 15 12 11 9 6 3 3 4 7 6 6 6 6 6 6 6 7 7 7 7 8 10 9 9 9 8 8 9 9 10 10 10 10 9 10 10 11 12 15 13 11 9 7 6 5
18 19 18 16 16 15 17 17 15 12 9 6 5 2 0 2 4 5 4 4 3 3 5 4 5 6 6 6 7 7 7 10 10 10 9 9 8 9 9 8 8 8 8 7 7 8 7 6 5 4 3 2 1 1
15 17 16 16 17 17 19 18 15 10 7 5 2 2 1 0 -1 2 5 3 2 2 3 2 3 5 5 7 8 9 10 10 10 8 8 8 8 8 7 7 6 6 5 4 4 4 3 3 2 0 -1 -2 -3 -3
10 15 16 16 15 16 17 17 13 7 6 4 2 1 -0 0 -2 1 5 4 4 4 4 4 4 5 6 7 8 9 9 9 8 7 5 4 3 4 4 4 4 3 2 2 1 1 -0 -1 -2 -3 -4 -5 -6 -7

GFSWCAN_sfc_30mbdewp_156.txt.gz
Dewpoint
33 34 37 40 41 45 45 45 45 44 44 44 44 44 44 44 45 42 39 42 37 34 31 33 32 31 33 33 29 35 34 34 32 29 25 24 22 21 20 21 24 25 23 24 25 25 22 27 28 21 30 30 30 29
36 38 38 40 43 44 45 44 44 45 44 44 44 44 44 45 44 42 38 41 40 34 30 36 34 33 33 33 37 37 35 36 34 28 25 26 26 26 23 18 26 24 24 26 27 23 31 29 30 30 30 29 30 29
37 39 41 45 43 43 45 45 44 44 44 44 44 44 44 44 44 41 40 41 39 35 34 35 32 33 38 39 37 34 37 37 36 35 32 29 26 27 21 22 26 29 28 28 27 26 27 30 30 29 29 29 29 28
39 41 41 43 43 43 43 44 44 44 44 44 44 44 44 44 44 43 40 41 39 36 30 30 36 36 36 35 39 38 38 41 39 38 34 32 28 31 26 27 26 26 29 28 27 28 29 29 30 29 28 29 28 27
41 42 44 43 44 44 44 44 44 44 44 44 44 44 44 44 43 42 41 40 41 35 30 33 35 34 39 39 37 38 40 39 38 34 32 32 32 34 32 30 26 28 27 28 28 30 28 28 31 30 29 28 27 26
41 40 44 43 43 44 44 44 44 44 43 43 44 44 43 43 41 40 34 42 42 41 33 29 38 38 40 39 39 39 41 39 36 33 33 34 37 35 32 28 26 28 30 30 30 32 32 32 31 30 29 27 26 26
43 43 42 42 43 44 44 44 44 43 43 43 43 43 43 42 41 36 35 40 43 41 33 30 32 37 38 41 39 39 40 37 36 34 33 34 35 36 31 29 29 30 31 31 31 30 30 30 29 29 28 27 27 25
42 42 42 42 43 43 43 43 42 42 41 42 42 42 42 42 41 38 39 41 43 39 36 30 30 32 38 33 32 36 36 36 35 34 33 33 32 35 31 29 31 32 31 31 30 29 29 29 29 28 27 26 24 23
43 43 43 43 42 42 41 41 41 41 41 40 40 40 42 40 35 37 41 41 43 37 31 31 29 29 37 33 34 31 33 32 32 31 28 30 28 28 30 26 28 30 30 29 27 27 27 28 27 27 26 25 23 23
43 42 42 41 41 41 40 40 40 41 42 40 39 35 31 36 42 41 37 34 34 34 35 30 32 31 35 33 31 30 29 28 27 28 28 27 25 29 28 30 30 31 30 28 27 26 26 26 26 25 25 24 23 23
42 42 42 42 42 41 41 41 41 40 38 36 33 31 37 42 36 32 29 29 31 28 33 32 33 31 34 30 28 28 28 26 21 26 25 24 22 26 29 30 31 31 29 28 27 27 26 26 26 25 24 24 23 23
43 42 42 41 40 41 41 40 38 36 35 34 36 38 36 33 30 27 27 27 30 25 31 31 31 33 32 33 28 27 25 24 17 27 26 21 25 28 30 31 31 31 29 28 28 27 27 26 26 26 25 23 22 22
41 41 41 41 41 41 39 39 40 39 38 37 33 31 30 28 23 21 21 24 27 31 32 32 30 33 31 28 28 26 23 21 26 25 21 23 26 29 29 31 30 30 29 29 28 28 27 26 26 25 25 25 24 23
39 39 39 39 39 39 39 40 40 40 36 31 28 23 25 22 23 24 25 28 31 32 31 31 29 28 28 26 27 23 26 25 22 20 19 26 28 29 30 31 29 29 29 30 29 28 27 26 26 26 26 25 24 22
38 38 38 38 38 39 38 38 39 34 31 27 25 22 23 27 29 30 31 31 32 32 31 29 27 26 26 27 26 25 24 20 20 20 25 28 28 28 29 30 30 30 28 28 29 27 26 25 25 25 25 25 25 23
34 34 34 35 35 36 35 32 33 32 30 26 26 25 27 28 28 30 31 31 33 31 30 28 24 25 25 24 21 21 18 18 23 27 28 28 28 28 28 30 30 29 29 29 29 28 26 25 26 27 25 25 24 23
34 33 37 35 34 34 32 32 31 28 27 25 26 29 28 29 28 30 31 32 34 33 28 25 23 24 26 22 21 24 23 25 27 27 28 27 27 27 28 28 28 28 28 29 28 28 27 27 25 24 24 24 23 23
34 35 36 34 33 32 31 30 27 25 24 27 25 28 29 30 30 30 31 34 34 30 29 27 26 22 22 19 20 25 26 28 27 27 27 27 27 27 27 28 27 28 27 27 27 26 25 24 25 26 26 25 22 22
35 34 34 34 30 28 25 27 27 24 27 29 29 29 30 31 31 32 33 33 32 30 27 24 23 21 21 23 24 25 26 27 27 27 27 28 27 26 26 25 25 25 24 25 26 26 26 26 26 25 24 22 23 23
30 32 32 31 28 24 21 23 27 23 23 26 29 28 29 29 28 30 29 28 26 24 22 20 21 22 23 24 25 26 27 28 29 28 27 28 29 27 27 26 26 25 24 24 23 21 22 21 20 20 21 20 22 22
28 30 29 30 28 26 24 23 23 24 25 26 26 26 26 27 26 26 24 23 22 21 20 22 22 24 25 25 25 26 25 26 27 27 26 27 29 28 27 27 26 25 25 25 26 25 24 25 23 22 25 25 25 24
28 29 25 26 25 25 24 24 23 24 23 24 23 23 23 23 24 24 21 20 19 20 22 23 23 23 23 22 22 23 23 23 23 24 26 27 27 27 28 28 27 27 26 25 24 25 24 22 23 23 24 24 21 21
27 25 24 22 20 21 21 24 21 20 19 21 20 19 22 22 22 21 19 18 19 20 21 22 24 23 21 20 19 20 21 20 20 21 23 24 25 26 27 27 27 27 26 26 26 26 26 24 24 25 25 24 23 23
23 21 18 20 20 19 20 21 21 19 20 18 17 19 20 20 20 17 15 16 17 18 18 20 22 21 19 17 17 18 18 19 19 20 21 21 22 22 23 23 23 23 24 25 26 27 27 26 26 25 25 25 24 24
16 16 17 16 20 18 18 18 17 17 17 17 18 19 21 19 16 15 14 15 16 16 17 17 17 17 16 17 17 17 17 17 18 18 19 20 21 22 21 21 20 20 21 23 23 24 24 24 24 24 23 23 23 22
12 18 18 19 20 18 16 16 16 17 17 17 19 20 20 18 14 13 13 14 15 15 16 16 16 15 15 15 15 15 16 16 17 17 18 18 18 19 19 18 19 19 19 20 20 20 20 20 20 20 21 21 21 22
10 18 19 21 22 20 20 20 18 18 17 16 19 19 19 13 12 11 12 13 13 15 15 16 15 14 14 14 13 14 15 15 16 17 18 17 17 17 17 17 16 16 17 19 19 20 20 20 20 20 20 21 21 20
21 21 17 20 20 19 18 18 18 18 18 18 18 17 16 13 11 10 10 12 14 15 14 14 14 13 13 13 14 15 16 17 18 19 18 17 16 16 15 16 16 15 16 17 16 17 18 19 20 20 19 18 17 17
21 21 19 15 16 18 19 19 19 19 19 20 19 15 10 6 7 8 9 11 13 13 12 12 13 14 13 13 14 14 14 15 16 14 14 14 14 14 14 14 14 14 15 15 15 15 17 19 19 18 15 14 12 11
18 21 19 17 16 15 20 21 21 18 14 13 10 7 5 5 6 8 9 10 10 10 10 10 11 11 11 11 11 11 12 12 12 11 11 10 11 12 13 13 12 13 13 13 13 14 14 16 14 13 11 10 9 7
18 20 19 19 18 20 21 19 17 14 12 9 9 9 5 4 5 7 7 7 7 8 8 8 8 9 9 9 9 9 9 11 11 11 11 11 12 12 11 11 11 12 11 11 11 10 10 9 8 7 6 4 4 3
16 17 16 15 18 20 19 20 17 13 10 9 6 5 4 4 3 4 6 6 6 6 5 6 7 7 8 9 10 11 11 11 10 10 9 10 10 10 10 10 10 10 9 8 7 7 6 5 4 3 2 1 -0 -1
12 15 15 16 16 16 19 18 14 9 9 7 5 4 4 5 1 3 7 7 6 6 6 7 7 8 9 9 10 10 10 8 7 6 5 4 4 5 7 8 7 7 6 5 5 4 3 2 1 -0 -1 -2 -3 -4

GFSWCAN_sfc_30mbdewp_159.txt.gz
Dewpoint
34 35 36 37 37 38 40 40 44 45 46 45 44 43 43 44 43 40 38 43 38 34 30 30 29 27 25 26 26 34 34 35 33 29 28 23 20 21 20 18 24 19 20 22 23 21 20 24 26 22 30 31 30 30
35 34 36 37 39 39 39 41 45 45 45 44 43 43 43 44 44 41 37 41 41 35 28 35 33 31 31 31 31 31 31 36 35 31 27 23 24 24 22 17 19 21 21 20 25 22 31 28 25 32 31 29 31 30
33 35 36 39 39 38 38 45 44 44 45 44 44 43 44 45 44 40 39 40 40 34 32 31 29 31 34 34 33 33 37 36 35 36 37 32 27 24 23 20 20 26 25 24 24 25 25 27 30 30 29 29 29 30
33 35 39 39 41 41 44 45 45 45 44 44 44 44 44 45 44 41 39 41 37 36 29 27 32 34 34 32 33 34 34 37 39 38 35 33 28 29 25 23 24 25 32 29 27 27 27 29 29 30 29 29 29 29
35 37 40 40 42 45 46 45 45 45 44 44 44 44 44 45 44 42 41 41 40 33 31 32 34 33 37 37 33 34 36 36 38 35 33 32 31 30 30 29 27 26 27 28 29 31 28 27 32 31 30 28 28 28
37 40 41 42 44 44 44 44 45 45 45 44 44 44 44 44 44 42 37 41 42 39 33 26 32 35 35 36 38 37 36 38 39 34 33 35 38 35 32 27 25 27 26 27 28 33 33 35 32 32 30 29 28 28
41 42 42 43 42 42 43 44 44 44 44 44 44 44 43 43 41 37 35 40 41 40 34 29 27 37 39 38 39 39 40 38 35 33 31 34 35 36 32 29 27 30 28 30 32 32 32 32 31 31 30 29 28 27
42 44 44 44 44 44 44 44 44 44 44 44 43 43 42 42 41 37 40 43 43 38 36 29 26 33 38 34 32 38 35 36 33 34 36 35 36 35 30 30 32 31 31 31 32 31 31 32 31 30 29 28 27 26
43 43 43 44 44 44 44 43 43 43 43 43 43 42 41 40 36 38 41 42 42 37 30 31 25 25 37 33 34 35 36 30 37 34 34 32 32 30 29 27 28 30 31 31 31 28 29 29 29 29 28 27 26 25
43 43 43 43 43 42 42 41 40 39 40 40 39 35 31 36 42 41 39 35 35 34 34 30 30 31 34 32 32 33 36 33 29 30 32 29 25 27 29 29 29 30 30 30 29 28 28 28 28 28 28 27 26 24
42 42 42 41 41 41 41 41 41 40 38 36 34 33 38 41 37 34 29 28 30 28 32 29 30 32 36 31 31 33 31 29 22 26 24 24 22 28 29 29 31 31 31 30 29 29 28 28 28 28 28 27 25 24
42 41 41 41 41 41 42 41 39 37 37 36 36 38 37 33 31 28 27 30 29 25 31 32 33 35 33 36 33 30 26 25 17 27 25 19 27 27 29 30 31 32 31 29 29 28 28 28 28 28 27 26 25 25
41 41 41 41 42 41 40 39 39 39 39 38 34 31 30 29 24 23 23 25 27 31 33 32 30 33 33 34 31 28 27 21 25 24 20 24 27 29 30 31 31 31 31 30 30 30 29 28 29 29 29 30 28 27
41 41 42 41 41 41 40 40 39 38 37 32 29 24 26 24 26 24 30 31 32 34 34 34 31 32 33 30 29 26 25 25 22 20 19 28 29 29 30 31 30 31 32 32 32 31 29 29 29 29 29 28 26 25
40 40 40 39 39 40 39 40 40 36 34 30 29 24 24 28 27 31 32 32 33 35 35 33 28 29 28 28 27 24 24 20 19 20 28 30 28 29 29 31 32 32 30 31 32 30 29 28 28 28 28 29 29 27
36 35 36 39 39 39 40 40 38 33 30 29 26 26 28 29 29 30 32 32 34 33 33 31 24 26 26 25 22 21 16 17 25 27 29 28 28 28 30 31 32 32 32 32 32 31 29 28 29 30 29 29 28 27
34 33 36 36 37 36 33 31 31 28 26 25 27 30 30 31 29 31 33 33 34 33 30 22 24 23 24 20 20 23 25 26 26 28 27 28 28 28 30 30 30 31 32 32 31 31 30 30 29 27 27 28 28 28
32 33 34 34 32 31 30 30 27 25 24 28 28 29 31 31 31 31 33 34 36 30 28 26 25 22 22 18 22 26 27 27 27 27 28 28 28 28 29 29 29 30 30 30 30 29 29 29 29 29 30 30 27 27
34 33 34 34 32 27 25 26 26 23 26 28 30 30 32 31 32 33 34 33 32 31 28 26 24 21 22 25 26 26 27 27 27 28 28 30 29 28 29 29 29 29 28 29 30 29 29 29 29 28 27 26 26 26
29 31 31 30 28 22 20 23 27 22 23 26 28 28 29 29 31 33 33 32 30 28 25 23 22 24 25 26 27 26 27 28 29 29 27 29 31 30 29 29 28 29 28 28 26 25 26 25 24 24 24 24 26 27
27 28 28 29 27 24 23 23 22 23 24 25 26 26 27 28 27 28 25 25 25 23 22 24 24 25 26 25 26 26 26 26 26 26 27 27 29 29 27 28 27 27 27 27 28 27 27 27 26 25 27 27 27 27
26 28 25 26 24 24 23 24 22 23 23 23 24 23 26 27 26 25 22 23 21 21 25 25 24 24 23 23 23 24 24 24 24 25 25 26 26 27 27 28 27 27 26 26 26 26 26 24 25 26 26 26 24 24
26 25 24 23 23 23 23 24 21 19 20 21 20 20 22 23 23 20 20 19 21 22 24 24 24 24 23 22 20 21 21 21 21 22 22 23 24 25 26 25 26 26 27 27 26 25 25 26 26 27 27 26 26 25
23 24 23 24 23 23 25 23 20 18 19 17 15 18 19 20 20 17 17 19 20 20 21 23 22 21 20 18 19 19 19 19 19 20 21 20 21 21 22 22 23 23 24 27 27 28 28 28 27 26 26 25 25 24
21 21 24 20 22 22 21 21 21 16 18 19 18 19 21 19 19 16 16 18 18 19 19 19 19 18 19 19 18 18 17 17 18 18 18 19 21 23 22 20 20 20 21 22 22 24 24 23 24 23 22 22 22 21
17 23 21 21 21 19 17 18 18 19 19 19 20 20 22 20 17 15 15 18 19 19 20 20 19 17 16 16 16 17 17 17 17 19 18 18 18 20 21 20 21 20 19 20 20 19 19 20 20 20 20 21 21 22
16 19 19 21 21 20 21 21 19 19 19 18 19 20 20 15 13 15 14 16 17 18 17 17 16 16 15 15 15 16 17 17 18 18 18 17 17 17 17 17 16 16 16 18 18 18 18 18 19 21 21 22 22 20
19 19 17 20 20 21 20 20 20 18 19 19 19 17 16 16 15 15 14 14 17 17 16 15 15 15 15 15 16 16 17 19 19 19 18 17 17 17 17 17 17 16 17 17 17 17 17 17 17 19 21 19 17 17
19 20 20 18 18 18 19 17 18 19 20 19 19 18 15 11 11 12 12 14 15 16 15 16 15 16 15 15 15 15 16 16 16 16 15 17 18 16 15 16 15 16 16 16 16 16 16 16 16 18 17 16 14 13
15 17 14 15 17 14 21 22 23 21 18 17 14 10 10 10 10 11 13 14 14 14 14 14 14 15 14 15 14 14 14 14 13 13 13 12 12 14 15 14 14 14 14 14 14 14 15 17 17 15 14 12 11 9
13 16 16 15 16 23 24 21 20 18 18 15 15 15 11 9 9 10 10 11 11 12 13 12 12 13 13 12 12 12 12 12 11 11 12 14 14 14 13 12 13 13 13 12 12 11 12 11 10 9 7 6 5 5
14 15 15 12 18 22 22 21 20 17 15 14 11 10 8 10 7 7 8 10 10 10 7 9 10 10 10 11 12 12 11 12 10 10 10 10 11 11 11 11 11 11 10 9 9 8 8 7 6 5 3 2 2 1
12 13 15 15 16 18 22 19 17 14 13 11 9 9 9 9 5 6 9 10 9 9 9 9 10 10 10 11 12 11 10 9 7 7 6 5 4 5 9 10 10 9 8 8 7 6 5 4 3 2 1 -0 -1 -2

GFSWCAN_sfc_30mbdewp_165.txt.gz
Dewpoint
32 32 33 35 36 36 37 38 38 38 38 39 38 38 40 42 43 43 39 42 41 34 32 34 35 29 27 25 23 28 30 35 33 29 27 23 23 23 22 21 21 27 27 25 25 22 18 31 29 28 34 37 33 31
32 34 35 35 36 36 36 37 37 38 38 38 37 38 39 42 44 43 39 42 44 40 34 35 36 36 36 37 33 34 32 34 34 30 30 29 25 26 25 22 27 26 27 24 24 23 30 35 32 37 38 32 31 33
33 35 35 35 35 36 36 37 38 38 38 38 37 38 40 42 44 43 41 42 42 36 32 31 31 32 34 35 38 32 34 38 37 38 35 34 30 33 28 26 27 29 32 30 28 31 30 35 38 38 35 30 31 33
34 35 35 35 36 37 37 37 37 37 37 37 39 41 41 42 45 43 41 43 39 34 29 30 31 32 32 33 33 35 35 36 38 38 35 33 30 32 30 31 29 31 33 33 33 33 34 33 37 36 35 30 30 32
34 33 34 34 36 37 37 37 38 38 37 38 39 40 41 42 45 43 43 42 41 36 30 31 33 31 35 32 31 32 33 34 34 33 32 31 32 30 31 31 29 30 28 28 27 32 33 32 36 33 31 30 30 32
33 34 35 35 36 36 37 38 40 40 40 39 40 41 42 44 43 41 36 40 41 41 33 26 31 30 32 35 33 33 33 34 33 33 32 33 34 32 29 27 28 27 30 33 33 37 38 39 38 40 34 30 31 31
34 34 36 35 36 36 38 39 40 39 40 44 44 44 43 43 42 37 35 40 40 40 31 27 26 31 36 35 35 35 37 36 35 34 33 33 35 34 32 27 28 28 30 31 37 39 36 34 33 32 32 31 31 30
35 36 36 37 37 39 38 39 40 42 44 44 44 43 43 42 40 38 41 43 41 37 35 28 26 32 37 34 34 39 36 37 36 34 34 33 34 34 29 32 33 33 32 32 32 33 32 31 32 32 32 31 29 28
36 37 38 37 37 41 44 44 44 44 45 44 43 43 40 39 37 39 43 41 41 36 28 27 24 25 37 35 35 35 36 30 35 31 32 34 31 29 32 32 32 30 30 31 31 31 30 30 31 31 30 29 28 27
44 44 44 44 43 43 44 44 44 44 43 41 39 35 32 38 42 39 36 35 35 33 33 28 29 28 34 33 32 31 32 30 26 29 35 32 31 34 34 30 30 31 31 32 30 30 30 29 30 30 29 29 28 28
42 43 43 43 44 44 44 43 42 40 38 37 34 32 39 42 37 34 28 28 30 28 30 30 28 27 36 30 30 32 30 31 27 31 31 29 29 29 30 30 32 32 32 32 32 30 30 31 30 30 30 29 29 28
43 43 43 43 43 42 41 39 39 39 38 36 37 38 37 34 31 27 25 28 27 24 30 29 30 30 35 36 31 31 29 30 27 35 30 25 29 30 30 31 32 32 33 32 33 32 32 31 32 31 30 30 29 28
41 41 41 41 40 40 40 40 39 39 39 38 34 31 29 29 24 22 21 23 25 29 33 34 32 33 34 35 32 31 27 26 31 28 23 27 29 29 31 33 33 32 33 32 31 30 30 30 31 32 30 29 28 27
41 40 40 40 40 40 40 40 40 38 36 31 28 24 24 24 23 24 26 28 33 35 34 33 32 32 33 31 31 26 28 31 22 20 22 27 28 28 31 33 32 30 30 30 30 29 29 29 29 29 29 28 27 26
41 40 40 40 39 39 38 39 39 37 34 30 29 23 24 28 31 31 31 32 33 36 34 32 32 32 29 28 29 29 24 22 21 23 26 28 27 28 30 31 31 30 30 29 30 28 28 28 28 28 29 27 26 26
39 39 39 39 39 39 38 38 38 37 33 30 29 26 29 28 28 29 30 30 35 34 35 34 30 28 26 28 26 22 20 20 24 26 28 28 28 28 29 30 29 29 30 30 30 29 29 29 28 28 28 27 25 25
36 37 38 38 39 38 38 36 37 33 28 29 29 31 29 30 29 31 32 32 36 32 30 31 27 22 25 25 23 26 22 25 27 27 28 27 28 28 29 29 30 29 29 30 29 29 28 29 28 27 26 27 27 26
34 37 39 39 39 36 35 33 34 28 24 27 28 30 31 30 30 31 32 34 33 32 32 30 27 26 25 24 23 26 27 27 27 27 28 28 29 29 29 29 29 30 29 28 28 28 29 30 29 30 29 28 28 27
35 34 35 37 37 35 34 28 33 25 26 29 30 32 32 31 33 33 33 34 35 35 33 28 26 25 23 26 27 28 29 29 27 28 29 29 29 29 30 30 30 29 28 29 29 30 29 30 29 29 29 28 28 28
29 28 30 33 33 30 24 25 29 26 25 28 30 30 30 30 32 32 33 33 31 28 25 24 24 25 25 27 28 28 28 30 30 28 27 29 31 30 30 30 30 31 30 30 29 30 30 28 27 28 28 28 28 28
30 29 26 29 31 29 24 24 24 25 25 28 29 29 29 30 31 30 30 33 28 27 24 25 24 26 27 28 28 27 27 28 27 27 27 27 30 30 29 30 28 28 28 28 27 27 27 27 28 27 26 26 25 25
27 26 30 29 26 25 25 25 25 25 26 27 26 27 28 27 27 26 27 24 24 25 27 25 25 26 25 24 24 25 24 28 26 26 27 27 26 26 26 27 28 27 27 28 28 27 26 26 27 26 26 25 25 25
26 28 28 27 22 25 23 27 25 23 23 24 24 24 25 25 25 23 21 22 23 27 28 26 27 25 23 23 22 21 23 24 22 21 24 26 26 27 25 25 24 23 24 26 28 28 27 28 27 27 27 26 26 26
26 26 24 25 26 24 26 25 24 20 22 20 21 19 23 23 23 20 21 22 24 25 25 25 24 23 23 24 20 19 20 23 22 20 21 24 24 24 24 23 21 21 22 23 22 24 24 23 24 22 22 23 22 21
22 22 26 21 25 24 22 21 21 18 17 19 17 19 22 20 19 18 18 20 23 24 24 24 23 25 24 21 19 18 19 20 22 19 19 20 22 26 22 20 19 19 21 20 19 20 20 21 21 21 22 23 22 22
20 22 20 20 21 20 19 18 19 18 18 18 19 22 22 20 17 17 19 23 23 23 24 24 23 21 21 23 21 18 18 19 22 19 19 19 19 20 19 18 16 15 19 21 19 18 17 19 19 19 18 19 18 16
18 18 21 22 20 20 19 21 20 18 19 18 20 19 19 17 16 16 19 20 20 20 21 21 21 22 19 18 19 20 19 20 21 20 19 19 19 20 18 15 14 16 20 20 19 18 17 15 15 16 17 17 15 16
17 19 17 18 19 19 16 17 17 17 19 22 20 18 17 15 13 16 18 20 21 18 18 18 18 19 19 19 19 20 21 20 19 19 21 20 19 18 18 19 19 18 17 18 17 17 17 13 14 13 15 12 11 12
14 16 13 14 18 17 16 16 17 21 21 21 20 17 14 14 15 16 15 15 17 19 17 16 18 18 18 18 17 17 16 15 16 17 16 12 13 14 15 16 16 15 16 15 15 15 17 17 16 15 12 10 9 8
10 14 12 11 10 11 20 24 22 23 21 19 15 13 13 13 14 16 18 17 17 16 17 17 18 19 17 15 14 13 14 13 12 12 11 11 12 14 12 13 13 14 13 12 12 13 14 10 9 9 8 7 6 5
14 15 15 18 18 22 23 22 21 20 20 18 19 16 11 11 13 14 13 14 16 17 16 14 14 16 14 13 13 10 9 11 9 9 10 12 12 12 13 13 13 13 10 10 11 10 8 7 6 4 4 3 2 1
13 14 13 10 10 14 21 21 21 19 17 16 14 13 13 12 8 10 11 12 14 12 13 15 12 12 15 12 11 10 9 8 6 5 4 5 5 6 11 13 12 12 9 7 6 6 5 4 2 1 -1 -1 -2 -2
10 12 13 10 9 9 11 10 14 18 17 15 13 13 9 9 5 8 13 14 12 12 13 13 14 13 14 12 10 9 6 5 5 4 3 3 2 3 4 7 10 8 8 7 5 3 2 0 -1 -2 -3 -4 -6 -7

GFSWCAN_sfc_30mbdewp_168.txt.gz
Dewpoint
34 33 33 34 34 35 35 35 37 38 38 39 39 40 40 40 41 41 40 43 39 35 36 37 37 32 27 27 26 26 27 30 30 24 26 24 22 22 19 18 20 22 23 24 24 23 19 25 30 27 26 36 34 33
33 33 32 33 34 35 36 36 36 37 39 39 39 40 39 38 39 42 37 43 43 38 36 38 38 37 36 36 29 33 26 33 31 27 29 27 24 27 26 23 27 25 27 26 26 24 27 35 33 35 38 35 34 33
32 31 32 34 34 35 35 36 37 38 38 39 38 39 38 38 39 40 40 42 41 36 35 35 31 35 36 36 38 30 35 37 36 36 33 31 29 32 26 28 30 32 35 32 31 30 32 32 35 35 37 38 36 32
31 31 32 33 35 36 36 36 37 37 38 38 38 39 38 38 37 40 41 43 40 36 30 28 34 32 33 34 36 36 36 38 38 37 33 32 30 33 29 31 27 28 31 32 32 33 34 32 33 35 36 38 33 33
31 32 33 34 35 36 36 37 38 38 38 39 39 38 37 39 40 41 42 43 42 37 28 28 31 29 32 33 31 33 34 34 34 33 32 29 32 31 30 31 28 29 27 26 25 30 32 33 34 37 35 36 31 32
33 34 35 35 35 35 36 37 38 38 38 38 38 35 37 40 41 41 34 42 44 43 31 22 30 29 30 34 32 32 32 33 32 33 33 32 34 28 25 27 27 27 29 32 29 33 36 38 39 39 37 34 31 32
34 34 34 35 35 36 36 37 38 37 38 38 37 37 38 41 41 34 34 39 42 40 30 23 23 29 37 34 34 34 35 33 32 31 31 31 32 32 30 26 27 28 28 29 30 34 36 36 36 35 38 36 34 32
35 35 35 35 35 36 37 37 37 38 39 39 39 41 40 41 41 39 42 42 40 36 34 26 24 30 36 34 32 39 36 36 36 33 35 32 33 32 27 26 28 30 32 34 33 37 35 33 31 32 32 32 31 30
36 36 36 36 36 37 37 38 38 38 39 38 40 41 42 39 36 39 41 40 39 33 28 27 23 24 35 34 35 36 36 30 36 32 32 33 30 27 28 29 33 33 31 31 31 31 31 30 30 31 31 30 30 29
36 35 36 36 37 38 38 37 37 39 43 42 39 35 32 39 43 39 36 35 34 34 33 28 28 26 34 33 31 31 33 30 27 29 34 30 27 30 31 34 32 32 32 32 30 30 31 30 30 30 30 29 29 28
39 42 40 39 38 39 41 43 41 41 38 35 33 33 40 40 36 33 28 27 30 27 30 29 28 29 35 29 29 32 29 30 25 28 29 27 27 31 31 32 32 33 33 32 33 32 32 31 31 30 30 30 29 28
42 43 43 43 43 42 41 41 39 38 37 35 37 38 37 34 30 25 24 25 25 23 28 27 28 29 34 36 29 31 28 30 25 32 28 26 28 31 31 32 33 33 33 32 31 30 30 30 31 32 31 30 29 28
43 43 42 42 41 41 40 39 38 39 37 34 32 30 27 28 21 20 18 23 23 27 30 32 30 32 34 35 30 30 27 25 31 27 25 26 29 30 31 33 32 30 30 30 29 29 29 29 30 30 30 29 28 26
41 41 41 41 41 40 40 40 40 38 33 28 25 23 23 21 21 22 23 24 28 33 33 34 32 31 33 30 30 25 27 29 23 19 22 26 28 28 30 32 31 30 29 29 29 28 27 28 28 28 27 27 27 26
39 39 39 39 39 39 38 38 38 36 32 28 25 20 23 24 29 30 30 31 31 33 34 31 31 31 30 28 28 28 24 22 22 21 25 27 28 28 29 30 30 29 28 28 29 27 27 26 27 27 26 26 26 25
38 38 39 39 38 38 39 38 38 35 32 28 28 24 27 25 26 28 28 28 33 33 32 32 30 27 26 27 25 23 20 18 23 25 27 28 27 28 29 29 29 29 29 28 28 28 28 28 26 26 26 25 24 25
37 37 38 38 38 38 37 36 35 31 28 28 27 29 27 27 28 30 30 31 35 32 29 31 26 22 29 25 25 25 22 24 25 26 27 28 27 28 29 29 29 29 28 28 28 27 28 28 27 26 24 26 26 25
34 36 38 38 38 36 35 33 32 27 24 26 25 27 30 29 29 30 32 32 31 31 31 29 31 27 24 24 22 24 25 27 27 27 27 28 28 28 29 28 29 29 28 29 28 29 29 30 30 28 27 28 27 26
34 35 37 38 37 33 32 30 32 24 25 29 29 31 31 30 32 32 31 32 33 32 32 31 26 24 23 26 25 26 26 26 26 27 27 28 28 28 28 29 28 28 28 28 29 28 28 28 27 28 28 29 28 27
28 29 31 34 34 29 28 24 31 27 24 27 30 30 29 29 31 31 32 32 32 30 26 24 23 24 25 26 28 28 29 29 28 26 27 28 30 29 29 29 29 29 29 29 29 29 28 27 28 27 27 26 25 25
29 30 28 30 28 28 26 24 25 25 25 27 29 28 28 31 31 29 28 31 27 25 22 23 23 25 27 28 28 28 28 29 28 27 27 27 28 28 28 29 28 28 27 27 26 26 26 26 27 26 25 24 24 23
27 28 29 30 26 26 25 26 25 26 26 26 26 27 28 25 25 25 27 22 23 24 25 24 24 25 25 25 25 25 27 27 27 27 27 27 25 25 24 25 26 26 25 25 27 25 25 26 26 26 26 26 26 26
27 30 27 27 22 22 20 27 25 24 22 23 25 25 25 25 25 24 21 22 22 25 26 26 25 24 23 23 23 26 25 22 22 25 26 26 26 25 23 23 22 21 21 21 24 23 22 24 22 22 23 24 22 21
28 25 23 24 25 23 26 21 24 22 20 21 21 20 24 23 23 21 20 20 22 25 25 24 23 23 24 21 20 23 23 21 20 22 25 25 23 23 20 19 20 21 21 21 20 19 19 19 19 19 20 21 21 20
20 21 23 20 22 22 21 20 19 19 16 18 18 19 21 20 18 19 17 19 23 23 24 25 26 24 21 19 19 20 22 22 19 19 20 22 23 19 18 17 18 19 20 16 16 15 16 16 16 17 17 17 17 17
18 20 20 18 18 20 21 17 20 18 18 17 18 21 21 18 17 16 16 17 21 21 21 22 22 20 21 19 17 17 18 22 19 18 19 20 20 17 15 14 12 14 19 18 16 14 15 13 12 13 14 15 14 15
15 16 20 21 20 20 17 19 22 18 18 17 19 18 18 16 13 14 17 18 18 19 20 21 23 19 18 18 19 19 21 21 19 19 19 19 19 17 14 12 12 16 18 16 15 16 15 11 12 12 12 10 10 10
19 17 11 12 16 18 15 15 16 17 19 22 22 18 16 13 11 13 15 18 19 19 19 20 20 19 18 18 18 17 18 19 20 19 18 17 16 16 16 15 14 15 14 13 14 13 15 13 13 10 8 7 6 6
12 13 12 8 12 15 16 18 19 20 21 21 17 14 11 12 12 13 14 15 18 17 15 16 16 16 15 14 14 14 14 15 16 13 10 10 10 12 12 12 12 12 11 11 12 16 14 13 10 7 6 5 3 3
8 14 12 10 9 9 18 21 20 21 20 16 15 13 12 11 12 13 13 13 14 14 15 15 16 15 12 10 10 9 10 10 11 12 10 8 10 11 11 11 11 10 9 9 9 7 7 7 7 6 4 3 2 1
15 13 14 16 14 18 18 20 20 20 19 17 14 11 8 9 11 11 11 12 13 15 14 12 13 13 12 10 10 9 7 6 7 8 8 7 8 9 10 10 9 7 7 6 5 4 3 2 1 -0 -1 -1 -2 -2
9 13 10 10 9 11 14 8 14 18 16 13 11 10 10 8 5 6 10 11 12 11 12 12 11 9 10 10 8 7 6 4 3 2 2 3 5 5 8 9 6 4 4 4 3 1 0 -1 -2 -3 -4 -5 -6 -6
7 9 8 5 4 4 5 7 7 14 14 11 9 9 6 5 2 6 11 13 11 11 11 11 12 12 11 9 7 5 4 4 3 4 3 2 3 5 6 7 6 5 3 1 -1 -2 -3 -4 -5 -7 -8 -9 -11 -12

GFSWCAN_sfc_30mbdewp_171.txt.gz
Dewpoint
39 37 36 35 35 34 35 34 35 36 37 39 39 39 40 41 41 40 36 40 38 33 34 37 36 34 32 28 25 27 29 30 29 25 26 25 23 21 19 17 16 18 20 22 23 21 17 26 26 23 25 32 34 34
38 37 36 35 35 35 35 34 35 36 37 38 39 39 40 40 40 40 35 41 42 36 35 40 39 39 37 35 29 31 31 29 28 26 28 27 22 25 23 17 27 20 26 27 24 23 28 31 32 33 35 34 33 34
37 38 35 35 34 35 34 34 36 37 37 38 38 39 39 39 39 39 37 39 39 35 34 35 35 36 39 38 38 30 34 34 34 35 31 30 26 31 24 24 29 33 37 31 31 33 31 32 34 34 35 36 36 37
34 34 34 34 33 34 34 35 37 37 37 37 38 39 39 39 39 38 37 38 37 35 29 30 36 35 36 38 38 36 36 39 38 36 32 31 29 33 29 30 30 30 30 29 31 32 31 33 34 34 34 36 38 36
30 32 33 33 33 33 35 37 37 37 37 37 37 38 38 38 38 38 38 40 40 34 30 30 32 32 34 34 35 36 36 36 35 32 31 30 32 30 30 30 27 27 26 29 25 28 31 31 32 34 36 36 36 37
30 32 32 33 33 35 36 37 37 37 37 37 38 38 38 38 38 39 33 39 41 42 32 26 29 29 30 33 32 32 33 33 33 32 32 31 33 29 25 24 24 26 30 31 29 32 32 31 34 38 39 38 37 33
32 33 33 35 36 36 36 36 37 37 38 38 38 39 38 38 39 34 31 38 42 41 31 24 22 28 36 34 33 32 34 32 30 30 29 29 32 31 27 22 23 25 26 27 30 30 31 35 35 36 35 37 36 35
34 34 35 36 36 36 36 36 37 37 37 37 38 39 38 37 39 37 37 42 42 37 34 23 22 28 35 32 32 38 34 34 34 29 33 30 31 30 24 24 24 23 25 29 31 34 37 37 33 31 32 32 32 31
36 36 37 36 36 36 35 36 36 38 37 37 38 38 38 38 34 35 42 42 42 35 27 26 19 22 34 33 35 36 36 29 35 31 31 32 30 26 26 27 28 31 33 32 32 31 31 30 30 31 31 30 31 31
36 37 37 37 36 36 36 37 38 38 38 38 37 32 29 35 42 42 38 33 33 34 31 24 27 24 32 31 32 31 33 28 24 28 33 30 26 28 29 30 31 32 32 32 30 29 30 30 30 30 30 30 30 30
36 36 36 37 37 37 37 38 38 38 38 36 31 31 39 40 35 32 28 27 28 25 28 28 27 25 34 27 28 31 29 29 24 26 27 24 26 31 32 32 33 33 32 32 32 32 31 31 31 32 31 31 32 32
37 36 36 36 36 37 36 37 38 39 36 36 37 38 37 33 30 25 24 25 23 22 27 26 26 28 31 35 29 30 27 28 23 31 27 24 28 32 33 32 31 32 31 31 30 29 29 29 30 30 32 30 30 29
42 41 40 39 38 37 38 39 40 40 38 34 31 30 27 27 21 20 17 20 21 25 27 29 27 30 34 34 30 29 25 25 31 27 25 26 29 30 31 33 31 30 30 30 29 28 28 28 29 28 29 29 29 27
40 41 42 42 42 42 41 40 40 36 31 27 25 21 20 20 20 21 20 22 25 31 30 31 30 30 31 29 28 25 26 28 23 21 21 26 28 29 30 32 30 29 28 28 28 27 26 27 27 26 26 26 27 26
39 39 40 40 40 39 39 38 37 35 30 26 22 17 22 23 25 28 29 29 30 32 34 32 31 31 29 28 28 27 24 21 22 21 25 27 28 28 29 29 29 29 28 27 27 26 26 26 26 25 25 25 25 25
37 37 39 39 38 37 37 37 36 32 30 28 27 24 26 25 25 27 28 28 29 31 33 32 29 27 26 27 24 23 22 18 21 25 26 28 28 28 29 29 29 28 28 27 27 27 27 26 25 25 25 24 24 24
36 36 38 38 38 36 36 34 31 28 27 26 25 26 25 25 24 27 28 28 34 32 27 30 25 24 28 25 24 25 22 23 25 26 27 28 27 28 29 29 29 28 28 27 27 28 28 27 27 25 24 26 25 24
34 36 38 38 38 36 34 33 30 26 23 25 23 25 27 28 27 28 31 31 31 31 31 29 31 26 24 23 22 24 25 26 27 27 27 28 28 28 28 27 28 28 28 28 28 28 28 29 27 26 27 27 26 25
34 35 36 37 35 31 30 30 29 23 24 28 28 28 29 29 30 32 31 32 32 32 30 30 27 24 23 26 24 25 25 25 25 26 27 28 28 28 28 27 27 27 27 27 27 26 26 26 26 26 26 26 25 26
28 29 29 33 33 28 27 24 31 27 24 26 30 29 29 29 30 31 31 31 31 29 26 24 23 23 24 26 27 26 27 27 27 25 26 27 28 28 28 28 28 28 27 28 27 27 25 25 26 25 25 25 23 23
28 29 29 30 28 27 26 24 24 25 25 27 29 29 27 30 30 30 27 30 26 24 22 23 23 25 27 27 28 29 29 28 26 26 26 26 27 28 28 28 28 27 26 26 25 25 25 25 26 25 24 24 25 25
26 29 29 30 26 25 25 26 25 26 26 26 26 28 27 25 25 25 26 21 22 23 24 23 24 25 25 25 26 28 28 28 28 27 27 26 24 24 23 24 24 23 23 23 24 23 23 24 25 25 24 24 23 22
28 29 26 25 22 20 19 26 24 24 23 23 26 24 26 26 25 23 20 21 21 24 25 25 25 25 24 25 27 26 26 26 25 25 25 25 24 24 22 22 21 20 20 21 22 21 20 19 19 19 19 20 20 19
27 25 24 23 24 21 23 20 23 23 19 21 21 20 24 25 23 22 19 19 22 25 24 24 24 23 24 24 22 23 24 24 23 24 25 23 21 19 19 19 19 19 19 19 17 16 16 15 14 15 14 15 16 16
18 19 20 18 19 20 20 19 18 18 17 17 18 20 21 20 17 19 16 18 21 22 23 24 24 24 20 19 20 21 23 21 20 19 20 23 19 18 17 17 16 17 17 14 13 13 13 11 10 11 12 14 14 13
18 20 20 17 16 19 20 18 20 20 19 17 17 20 20 18 17 14 14 14 16 17 18 21 22 21 20 20 18 19 20 20 18 17 18 20 19 16 14 13 12 14 16 15 14 13 13 10 10 11 10 10 10 11
15 16 18 16 17 20 17 17 20 20 18 18 18 18 17 16 13 12 15 16 16 18 19 20 21 20 18 18 19 19 20 20 18 17 18 17 17 18 15 12 12 14 15 14 13 13 13 11 11 9 8 6 5 4
18 13 8 9 11 17 15 14 14 16 17 20 20 14 13 10 10 11 14 16 17 19 19 19 19 18 17 16 16 17 17 17 17 16 15 14 14 13 13 13 12 12 10 10 11 12 13 11 9 7 5 3 1 0
10 12 12 8 8 10 15 17 17 19 20 19 15 13 11 10 10 10 13 14 17 16 15 14 13 13 13 12 11 11 12 15 14 12 10 9 10 10 10 10 9 8 8 10 13 13 9 7 5 4 2 1 -1 -1
6 14 12 9 9 9 16 18 17 18 18 14 13 12 10 9 10 11 11 11 11 12 13 13 13 12 10 10 8 8 7 8 9 12 11 9 9 9 9 9 8 7 5 5 6 6 7 5 4 2 0 -1 -2 -3
12 11 12 13 13 14 15 14 17 19 19 15 11 8 6 8 9 8 10 10 12 13 13 12 12 12 11 10 9 7 6 5 6 7 8 7 8 9 8 7 5 3 3 2 1 -0 -1 -2 -3 -4 -4 -5 -5 -6
7 12 8 9 9 8 4 4 5 13 13 11 8 7 7 5 3 5 9 10 10 10 11 11 10 8 8 7 6 5 5 3 3 3 5 6 6 6 6 4 3 2 1 -0 -1 -2 -3 -4 -5 -7 -8 -8 -9 -10
4 5 4 3 2 3 4 7 7 10 9 8 7 6 4 3 2 5 9 10 8 9 9 10 10 9 8 6 4 4 4 4 4 4 3 3 4 6 6 4 2 0 -1 -2 -4 -5 -6 -7 -8 -10 -11 -13 -15 -16